Time,TemperatureF,DewpointF,PressureIn,WindDirection,WindDirectionDegrees,WindSpeedMPH,WindSpeedGustMPH,Humidity,HourlyPrecipIn,Conditions,Clouds,dailyrainin,SoftwareType,DateUTC
2013-03-28 00:00:00,53.1,46.8,30.19,NNW,333,0.0,0.0,79,0.00,,,0.00,Wunderground v.1.15,2013-03-28 04:00:00,
2013-03-28 00:02:00,53.1,46.4,30.19,NNW,333,0.0,0.0,78,0.00,,,0.00,Wunderground v.1.15,2013-03-28 04:02:00,
2013-03-28 00:05:00,53.0,46.3,30.19,NNW,333,0.0,0.0,78,0.00,,,0.00,Wunderground v.1.15,2013-03-28 04:05:00,
2013-03-28 00:06:00,53.0,46.3,30.19,NNW,333,0.0,0.0,78,0.00,,,0.00,Wunderground v.1.15,2013-03-28 04:06:00,
2013-03-28 00:09:00,52.8,46.5,30.19,NNW,333,0.0,0.0,79,0.00,,,0.00,Wunderground v.1.15,2013-03-28 04:09:00,
2013-03-28 00:11:00,52.7,46.4,30.19,NNW,333,0.0,0.0,79,0.00,,,0.00,Wunderground v.1.15,2013-03-28 04:11:00,
2013-03-28 00:12:00,52.6,46.3,30.19,NNW,333,0.0,0.0,79,0.00,,,0.00,Wunderground v.1.15,2013-03-28 04:12:00,
2013-03-28 00:13:00,52.6,46.6,30.19,NNW,333,0.0,0.0,80,0.00,,,0.00,Wunderground v.1.15,2013-03-28 04:13:00,
2013-03-28 00:15:00,52.6,46.6,30.19,NNW,333,0.0,0.0,80,0.00,,,0.00,Wunderground v.1.15,2013-03-28 04:15:00,
2013-03-28 00:17:00,52.6,46.6,30.19,NNW,333,0.0,0.0,80,0.00,,,0.00,Wunderground v.1.15,2013-03-28 04:17:00,
2013-03-28 00:19:00,52.4,46.4,30.19,NNW,333,0.0,0.0,80,0.00,,,0.00,Wunderground v.1.15,2013-03-28 04:19:00,
2013-03-28 00:20:00,52.3,46.3,30.19,NNW,333,0.0,0.0,80,0.00,,,0.00,Wunderground v.1.15,2013-03-28 04:20:00,
2013-03-28 00:24:00,52.0,46.3,30.19,NNW,333,0.0,0.0,81,0.00,,,0.00,Wunderground v.1.15,2013-03-28 04:24:00,
2013-03-28 00:25:00,51.9,46.3,30.19,NNW,333,0.0,0.0,81,0.00,,,0.00,Wunderground v.1.15,2013-03-28 04:25:00,
2013-03-28 00:26:00,51.7,46.1,30.19,NNW,333,0.0,0.0,81,0.00,,,0.00,Wunderground v.1.15,2013-03-28 04:26:00,
2013-03-28 00:29:00,51.3,46.0,30.19,NNW,333,0.0,0.0,82,0.00,,,0.00,Wunderground v.1.15,2013-03-28 04:29:00,
2013-03-28 00:30:00,51.1,45.8,30.19,NNW,333,0.0,0.0,82,0.00,,,0.00,Wunderground v.1.15,2013-03-28 04:30:00,
2013-03-28 00:31:00,51.0,45.7,30.19,NNW,333,0.0,0.0,82,0.00,,,0.00,Wunderground v.1.15,2013-03-28 04:31:00,
2013-03-28 00:34:00,50.6,45.6,30.19,NNW,333,0.0,0.0,83,0.00,,,0.00,Wunderground v.1.15,2013-03-28 04:34:00,
2013-03-28 00:36:00,50.3,45.6,30.19,NNW,333,0.0,0.0,84,0.00,,,0.00,Wunderground v.1.15,2013-03-28 04:36:00,
2013-03-28 00:39:00,50.2,45.9,30.18,NNW,333,0.0,0.0,85,0.00,,,0.00,Wunderground v.1.15,2013-03-28 04:39:00,
2013-03-28 00:40:00,50.2,45.9,30.19,NNW,333,0.0,0.0,85,0.00,,,0.00,Wunderground v.1.15,2013-03-28 04:40:00,
2013-03-28 00:41:00,50.3,46.0,30.19,NNW,333,0.0,0.0,85,0.00,,,0.00,Wunderground v.1.15,2013-03-28 04:41:00,
2013-03-28 00:43:00,50.3,46.0,30.18,NNW,333,0.0,0.0,85,0.00,,,0.00,Wunderground v.1.15,2013-03-28 04:43:00,
2013-03-28 00:46:00,50.5,46.2,30.18,NNW,333,0.0,0.0,85,0.00,,,0.00,Wunderground v.1.15,2013-03-28 04:46:00,
2013-03-28 00:48:00,50.6,46.3,30.19,NNW,333,0.0,0.0,85,0.00,,,0.00,Wunderground v.1.15,2013-03-28 04:48:00,
2013-03-28 00:52:00,50.6,46.3,30.19,NNW,333,0.0,0.0,85,0.00,,,0.00,Wunderground v.1.15,2013-03-28 04:52:00,
2013-03-28 00:54:00,50.6,46.3,30.19,NNW,333,0.0,0.0,85,0.00,,,0.00,Wunderground v.1.15,2013-03-28 04:54:00,
2013-03-28 00:56:00,50.6,46.3,30.19,NNW,333,0.0,0.0,85,0.00,,,0.00,Wunderground v.1.15,2013-03-28 04:56:00,
2013-03-28 00:58:00,50.5,46.2,30.19,NNW,333,0.0,0.0,85,0.00,,,0.00,Wunderground v.1.15,2013-03-28 04:58:00,
2013-03-28 01:00:00,50.4,46.1,30.19,NNW,333,0.0,0.0,85,0.00,,,0.00,Wunderground v.1.15,2013-03-28 05:00:00,
2013-03-28 01:01:00,50.4,46.1,30.19,NNW,333,0.0,0.0,85,0.00,,,0.00,Wunderground v.1.15,2013-03-28 05:01:00,
2013-03-28 01:04:00,50.4,46.1,30.18,NNW,333,0.0,0.0,85,0.00,,,0.00,Wunderground v.1.15,2013-03-28 05:04:00,
2013-03-28 01:06:00,50.5,46.5,30.18,NNW,333,0.0,0.0,86,0.00,,,0.00,Wunderground v.1.15,2013-03-28 05:06:00,
2013-03-28 01:08:00,50.5,46.5,30.18,NNW,333,0.0,0.0,86,0.00,,,0.00,Wunderground v.1.15,2013-03-28 05:08:00,
2013-03-28 01:12:00,50.5,46.5,30.18,NNW,333,0.0,0.0,86,0.00,,,0.00,Wunderground v.1.15,2013-03-28 05:12:00,
2013-03-28 01:13:00,50.4,46.4,30.18,NNW,333,0.0,0.0,86,0.00,,,0.00,Wunderground v.1.15,2013-03-28 05:13:00,
2013-03-28 01:14:00,50.4,46.1,30.18,NNW,333,0.0,0.0,85,0.00,,,0.00,Wunderground v.1.15,2013-03-28 05:14:00,
2013-03-28 01:17:00,50.3,46.3,30.18,NNW,333,0.0,0.0,86,0.00,,,0.00,Wunderground v.1.15,2013-03-28 05:17:00,
2013-03-28 01:19:00,50.3,46.3,30.18,NNW,333,0.0,0.0,86,0.00,,,0.00,Wunderground v.1.15,2013-03-28 05:19:00,
2013-03-28 01:20:00,50.3,46.3,30.18,NNW,333,0.0,0.0,86,0.00,,,0.00,Wunderground v.1.15,2013-03-28 05:20:00,
2013-03-28 01:22:00,50.4,46.4,30.18,NNW,333,0.0,0.0,86,0.00,,,0.00,Wunderground v.1.15,2013-03-28 05:22:00,
2013-03-28 01:24:00,50.5,46.5,30.18,NNW,333,0.0,0.0,86,0.00,,,0.00,Wunderground v.1.15,2013-03-28 05:24:00,
2013-03-28 01:27:00,50.6,46.6,30.18,NNW,333,0.0,0.0,86,0.00,,,0.00,Wunderground v.1.15,2013-03-28 05:27:00,
2013-03-28 01:28:00,50.7,46.7,30.18,NNW,333,0.0,0.0,86,0.00,,,0.00,Wunderground v.1.15,2013-03-28 05:28:00,
2013-03-28 01:31:00,50.8,46.8,30.18,NNW,333,0.0,0.0,86,0.00,,,0.00,Wunderground v.1.15,2013-03-28 05:31:00,
2013-03-28 01:33:00,50.8,46.8,30.18,NNW,333,0.0,0.0,86,0.00,,,0.00,Wunderground v.1.15,2013-03-28 05:33:00,
2013-03-28 01:34:00,50.8,46.8,30.18,NNW,333,0.0,0.0,86,0.00,,,0.00,Wunderground v.1.15,2013-03-28 05:34:00,
2013-03-28 01:36:00,50.7,46.7,30.18,NNW,333,0.0,0.0,86,0.00,,,0.00,Wunderground v.1.15,2013-03-28 05:36:00,
2013-03-28 01:39:00,50.6,46.3,30.18,NNW,333,0.0,0.0,85,0.00,,,0.00,Wunderground v.1.15,2013-03-28 05:39:00,
2013-03-28 01:40:00,50.6,46.6,30.18,NNW,333,0.0,0.0,86,0.00,,,0.00,Wunderground v.1.15,2013-03-28 05:40:00,
2013-03-28 01:45:00,50.8,46.8,30.17,NNW,333,0.0,0.0,86,0.00,,,0.00,Wunderground v.1.15,2013-03-28 05:45:00,
2013-03-28 01:46:00,50.8,46.8,30.18,NNW,333,0.0,0.0,86,0.00,,,0.00,Wunderground v.1.15,2013-03-28 05:46:00,
2013-03-28 01:49:00,50.7,46.7,30.18,NNW,333,0.0,0.0,86,0.00,,,0.00,Wunderground v.1.15,2013-03-28 05:49:00,
2013-03-28 01:51:00,50.7,46.7,30.17,NNW,333,0.0,0.0,86,0.00,,,0.00,Wunderground v.1.15,2013-03-28 05:51:00,
2013-03-28 01:52:00,50.6,46.6,30.17,NNW,333,0.0,0.0,86,0.00,,,0.00,Wunderground v.1.15,2013-03-28 05:52:00,
2013-03-28 01:54:00,50.5,46.5,30.17,NNW,333,0.0,0.0,86,0.00,,,0.00,Wunderground v.1.15,2013-03-28 05:54:00,
2013-03-28 01:58:00,50.3,46.3,30.17,NNW,333,0.0,0.0,86,0.00,,,0.00,Wunderground v.1.15,2013-03-28 05:58:00,
2013-03-28 01:59:00,50.2,46.2,30.17,NNW,333,0.0,0.0,86,0.00,,,0.00,Wunderground v.1.15,2013-03-28 05:59:00,
2013-03-28 02:01:00,50.1,46.1,30.18,NNW,333,0.0,0.0,86,0.00,,,0.00,Wunderground v.1.15,2013-03-28 06:01:00,
2013-03-28 02:04:00,50.0,46.3,30.17,NNW,333,0.0,0.0,87,0.00,,,0.00,Wunderground v.1.15,2013-03-28 06:04:00,
2013-03-28 02:06:00,50.0,46.3,30.17,NNW,333,0.0,0.0,87,0.00,,,0.00,Wunderground v.1.15,2013-03-28 06:06:00,
2013-03-28 02:07:00,49.9,46.2,30.17,NNW,333,0.0,0.0,87,0.00,,,0.00,Wunderground v.1.15,2013-03-28 06:07:00,
2013-03-28 02:09:00,50.0,46.3,30.18,NNW,333,0.0,0.0,87,0.00,,,0.00,Wunderground v.1.15,2013-03-28 06:09:00,
2013-03-28 02:11:00,50.0,46.6,30.17,NNW,333,0.0,0.0,88,0.00,,,0.00,Wunderground v.1.15,2013-03-28 06:11:00,
2013-03-28 02:12:00,50.0,46.6,30.17,NNW,333,0.0,0.0,88,0.00,,,0.00,Wunderground v.1.15,2013-03-28 06:12:00,
2013-03-28 02:14:00,50.1,46.7,30.18,NNW,333,0.0,0.0,88,0.00,,,0.00,Wunderground v.1.15,2013-03-28 06:14:00,
2013-03-28 02:17:00,50.1,46.7,30.18,NNW,333,0.0,0.0,88,0.00,,,0.00,Wunderground v.1.15,2013-03-28 06:17:00,
2013-03-28 02:18:00,50.1,46.7,30.18,NNW,333,0.0,0.0,88,0.00,,,0.00,Wunderground v.1.15,2013-03-28 06:18:00,
2013-03-28 02:20:00,50.1,46.7,30.18,NNW,333,0.0,0.0,88,0.00,,,0.00,Wunderground v.1.15,2013-03-28 06:20:00,
2013-03-28 02:23:00,50.1,46.7,30.18,NNW,333,0.0,0.0,88,0.00,,,0.00,Wunderground v.1.15,2013-03-28 06:23:00,
2013-03-28 02:24:00,50.1,46.7,30.18,NNW,333,0.0,0.0,88,0.00,,,0.00,Wunderground v.1.15,2013-03-28 06:24:00,
2013-03-28 02:25:00,50.1,46.7,30.18,NNW,333,0.0,0.0,88,0.00,,,0.00,Wunderground v.1.15,2013-03-28 06:25:00,
2013-03-28 02:28:00,50.1,46.7,30.17,NNW,333,0.0,0.0,88,0.00,,,0.00,Wunderground v.1.15,2013-03-28 06:28:00,
2013-03-28 02:29:00,50.1,46.7,30.17,NNW,333,0.0,0.0,88,0.00,,,0.00,Wunderground v.1.15,2013-03-28 06:29:00,
2013-03-28 02:30:00,50.0,46.6,30.17,NNW,333,0.0,0.0,88,0.00,,,0.00,Wunderground v.1.15,2013-03-28 06:30:00,
2013-03-28 02:33:00,50.1,46.7,30.17,NNW,333,0.0,0.0,88,0.00,,,0.00,Wunderground v.1.15,2013-03-28 06:33:00,
2013-03-28 02:34:00,50.1,46.7,30.17,NNW,333,0.0,0.0,88,0.00,,,0.00,Wunderground v.1.15,2013-03-28 06:34:00,
2013-03-28 02:36:00,50.1,46.4,30.17,NNW,333,0.0,0.0,87,0.00,,,0.00,Wunderground v.1.15,2013-03-28 06:36:00,
2013-03-28 02:38:00,50.1,46.4,30.17,NNW,333,0.0,0.0,87,0.00,,,0.00,Wunderground v.1.15,2013-03-28 06:38:00,
2013-03-28 02:39:00,50.1,46.4,30.17,NNW,333,0.0,0.0,87,0.00,,,0.00,Wunderground v.1.15,2013-03-28 06:39:00,
2013-03-28 02:41:00,50.1,46.4,30.17,NNW,333,0.0,0.0,87,0.00,,,0.00,Wunderground v.1.15,2013-03-28 06:41:00,
2013-03-28 02:42:00,50.2,46.5,30.17,NNW,333,0.0,0.0,87,0.00,,,0.00,Wunderground v.1.15,2013-03-28 06:42:00,
2013-03-28 02:44:00,50.2,46.5,30.17,NNW,333,0.0,0.0,87,0.00,,,0.00,Wunderground v.1.15,2013-03-28 06:44:00,
2013-03-28 02:46:00,50.2,46.2,30.17,NNW,333,0.0,0.0,86,0.00,,,0.00,Wunderground v.1.15,2013-03-28 06:46:00,
2013-03-28 02:47:00,50.2,46.2,30.17,NNW,333,0.0,0.0,86,0.00,,,0.00,Wunderground v.1.15,2013-03-28 06:47:00,
2013-03-28 02:49:00,50.3,46.3,30.17,NNW,333,0.0,0.0,86,0.00,,,0.00,Wunderground v.1.15,2013-03-28 06:49:00,
2013-03-28 02:52:00,50.3,46.3,30.17,NNW,333,0.0,0.0,86,0.00,,,0.00,Wunderground v.1.15,2013-03-28 06:52:00,
2013-03-28 02:54:00,50.3,46.3,30.17,NNW,333,0.0,1.0,86,0.00,,,0.00,Wunderground v.1.15,2013-03-28 06:54:00,
2013-03-28 02:55:00,50.3,46.3,30.17,NNW,333,0.0,1.0,86,0.00,,,0.00,Wunderground v.1.15,2013-03-28 06:55:00,
2013-03-28 02:57:00,50.4,46.4,30.17,NNW,333,0.0,1.0,86,0.00,,,0.00,Wunderground v.1.15,2013-03-28 06:57:00,
2013-03-28 02:58:00,50.5,46.5,30.17,NNW,333,0.0,1.0,86,0.00,,,0.00,Wunderground v.1.15,2013-03-28 06:58:00,
2013-03-28 03:00:00,50.5,46.5,30.17,NNW,333,0.0,0.0,86,0.00,,,0.00,Wunderground v.1.15,2013-03-28 07:00:00,
2013-03-28 03:02:00,50.5,46.5,30.17,NNW,333,0.0,0.0,86,0.00,,,0.00,Wunderground v.1.15,2013-03-28 07:02:00,
2013-03-28 03:03:00,50.5,46.5,30.17,NNW,333,0.0,0.0,86,0.00,,,0.00,Wunderground v.1.15,2013-03-28 07:03:00,
2013-03-28 03:05:00,50.5,46.2,30.17,NNW,333,0.0,0.0,85,0.00,,,0.00,Wunderground v.1.15,2013-03-28 07:05:00,
2013-03-28 03:08:00,50.4,46.4,30.17,NNW,333,0.0,0.0,86,0.00,,,0.00,Wunderground v.1.15,2013-03-28 07:08:00,
2013-03-28 03:09:00,50.4,46.1,30.17,NNW,333,0.0,0.0,85,0.00,,,0.00,Wunderground v.1.15,2013-03-28 07:09:00,
2013-03-28 03:11:00,50.3,46.0,30.17,NNW,333,0.0,0.0,85,0.00,,,0.00,Wunderground v.1.15,2013-03-28 07:11:00,
2013-03-28 03:14:00,50.3,46.0,30.17,NNW,333,0.0,1.0,85,0.00,,,0.00,Wunderground v.1.15,2013-03-28 07:14:00,
2013-03-28 03:15:00,50.3,46.0,30.17,NNW,333,0.0,1.0,85,0.00,,,0.00,Wunderground v.1.15,2013-03-28 07:15:00,
2013-03-28 03:16:00,50.3,46.0,30.17,NNW,333,0.0,1.0,85,0.00,,,0.00,Wunderground v.1.15,2013-03-28 07:16:00,
2013-03-28 03:18:00,50.3,46.0,30.17,NNW,333,0.0,1.0,85,0.00,,,0.00,Wunderground v.1.15,2013-03-28 07:18:00,
2013-03-28 03:19:00,50.4,46.1,30.17,NNW,333,0.0,1.0,85,0.00,,,0.00,Wunderground v.1.15,2013-03-28 07:19:00,
2013-03-28 03:21:00,50.4,46.1,30.17,NNW,333,0.0,0.0,85,0.00,,,0.00,Wunderground v.1.15,2013-03-28 07:21:00,
2013-03-28 03:22:00,50.4,46.1,30.17,NNW,333,0.0,0.0,85,0.00,,,0.00,Wunderground v.1.15,2013-03-28 07:22:00,
2013-03-28 03:23:00,50.5,46.2,30.17,NNW,333,0.0,0.0,85,0.00,,,0.00,Wunderground v.1.15,2013-03-28 07:23:00,
2013-03-28 03:25:00,50.5,46.2,30.17,NNW,333,0.0,0.0,85,0.00,,,0.00,Wunderground v.1.15,2013-03-28 07:25:00,
2013-03-28 03:26:00,50.4,46.1,30.17,NNW,333,0.0,0.0,85,0.00,,,0.00,Wunderground v.1.15,2013-03-28 07:26:00,
2013-03-28 03:27:00,50.4,46.1,30.16,NNW,333,0.0,0.0,85,0.00,,,0.00,Wunderground v.1.15,2013-03-28 07:27:00,
2013-03-28 03:28:00,50.5,46.2,30.17,NNW,333,0.0,0.0,85,0.00,,,0.00,Wunderground v.1.15,2013-03-28 07:28:00,
2013-03-28 03:30:00,50.5,46.2,30.16,NNW,333,0.0,0.0,85,0.00,,,0.00,Wunderground v.1.15,2013-03-28 07:30:00,
2013-03-28 03:31:00,50.4,46.1,30.16,NNW,333,0.0,0.0,85,0.00,,,0.00,Wunderground v.1.15,2013-03-28 07:31:00,
2013-03-28 03:32:00,50.5,45.8,30.16,NNW,333,0.0,0.0,84,0.00,,,0.00,Wunderground v.1.15,2013-03-28 07:32:00,
2013-03-28 03:33:00,50.4,45.7,30.16,NNW,333,0.0,0.0,84,0.00,,,0.00,Wunderground v.1.15,2013-03-28 07:33:00,
2013-03-28 03:35:00,50.4,46.1,30.16,NNW,333,0.0,0.0,85,0.00,,,0.00,Wunderground v.1.15,2013-03-28 07:35:00,
2013-03-28 03:37:00,50.4,46.1,30.16,NNW,333,0.0,0.0,85,0.00,,,0.00,Wunderground v.1.15,2013-03-28 07:37:00,
2013-03-28 03:39:00,50.4,46.1,30.16,NNW,333,0.0,1.0,85,0.00,,,0.00,Wunderground v.1.15,2013-03-28 07:39:00,
2013-03-28 03:40:00,50.4,46.1,30.16,NNW,333,0.0,0.0,85,0.00,,,0.00,Wunderground v.1.15,2013-03-28 07:40:00,
2013-03-28 03:42:00,50.4,46.1,30.16,NNW,333,0.0,0.0,85,0.00,,,0.00,Wunderground v.1.15,2013-03-28 07:42:00,
2013-03-28 03:44:00,50.4,46.1,30.16,NNW,334,0.0,1.0,85,0.00,,,0.00,Wunderground v.1.15,2013-03-28 07:44:00,
2013-03-28 03:46:00,50.4,46.1,30.16,NNW,334,0.0,1.0,85,0.00,,,0.00,Wunderground v.1.15,2013-03-28 07:46:00,
2013-03-28 03:47:00,50.4,46.1,30.16,NNW,334,0.0,1.0,85,0.00,,,0.00,Wunderground v.1.15,2013-03-28 07:47:00,
2013-03-28 03:49:00,50.4,46.1,30.16,NNW,336,0.0,1.0,85,0.00,,,0.00,Wunderground v.1.15,2013-03-28 07:49:00,
2013-03-28 03:51:00,50.4,46.1,30.16,NNW,336,0.0,0.0,85,0.00,,,0.00,Wunderground v.1.15,2013-03-28 07:51:00,
2013-03-28 03:52:00,50.4,46.1,30.16,NNW,336,0.0,0.0,85,0.00,,,0.00,Wunderground v.1.15,2013-03-28 07:52:00,
2013-03-28 03:54:00,50.4,46.1,30.16,NNW,336,0.0,0.0,85,0.00,,,0.00,Wunderground v.1.15,2013-03-28 07:54:00,
2013-03-28 03:57:00,50.4,46.1,30.16,NNW,336,0.0,0.0,85,0.00,,,0.00,Wunderground v.1.15,2013-03-28 07:57:00,
2013-03-28 03:59:00,50.3,46.0,30.16,NNW,336,0.0,0.0,85,0.00,,,0.00,Wunderground v.1.15,2013-03-28 07:59:00,
2013-03-28 04:00:00,50.3,46.0,30.16,NNW,336,0.0,0.0,85,0.00,,,0.00,Wunderground v.1.15,2013-03-28 08:00:00,
2013-03-28 04:02:00,50.3,46.0,30.16,NNW,336,0.0,0.0,85,0.00,,,0.00,Wunderground v.1.15,2013-03-28 08:02:00,
2013-03-28 04:04:00,50.1,45.8,30.16,NNW,336,0.0,0.0,85,0.00,,,0.00,Wunderground v.1.15,2013-03-28 08:04:00,
2013-03-28 04:06:00,50.1,45.8,30.15,NNW,336,0.0,0.0,85,0.00,,,0.00,Wunderground v.1.15,2013-03-28 08:06:00,
2013-03-28 04:07:00,50.0,45.7,30.15,NNW,336,0.0,0.0,85,0.00,,,0.00,Wunderground v.1.15,2013-03-28 08:07:00,
2013-03-28 04:08:00,49.9,45.6,30.16,NNW,336,0.0,0.0,85,0.00,,,0.00,Wunderground v.1.15,2013-03-28 08:08:00,
2013-03-28 04:10:00,49.9,45.6,30.15,NNW,336,0.0,0.0,85,0.00,,,0.00,Wunderground v.1.15,2013-03-28 08:10:00,
2013-03-28 04:11:00,49.9,45.6,30.16,NNW,336,0.0,0.0,85,0.00,,,0.00,Wunderground v.1.15,2013-03-28 08:11:00,
2013-03-28 04:12:00,49.8,45.5,30.16,NNW,335,0.0,0.0,85,0.00,,,0.00,Wunderground v.1.15,2013-03-28 08:12:00,
2013-03-28 04:14:00,49.8,45.5,30.16,NNW,336,0.0,0.0,85,0.00,,,0.00,Wunderground v.1.15,2013-03-28 08:14:00,
2013-03-28 04:15:00,49.7,45.4,30.15,NNW,335,0.0,0.0,85,0.00,,,0.00,Wunderground v.1.15,2013-03-28 08:15:00,
2013-03-28 04:16:00,49.7,45.7,30.16,NNW,335,0.0,0.0,86,0.00,,,0.00,Wunderground v.1.15,2013-03-28 08:16:00,
2013-03-28 04:17:00,49.7,45.7,30.16,NNW,335,0.0,0.0,86,0.00,,,0.00,Wunderground v.1.15,2013-03-28 08:17:00,
2013-03-28 04:19:00,49.6,45.6,30.16,NNW,336,0.0,0.0,86,0.00,,,0.00,Wunderground v.1.15,2013-03-28 08:19:00,
2013-03-28 04:20:00,49.6,45.6,30.16,NNW,335,0.0,0.0,86,0.00,,,0.00,Wunderground v.1.15,2013-03-28 08:20:00,
2013-03-28 04:21:00,49.6,45.6,30.16,NNW,335,0.0,0.0,86,0.00,,,0.00,Wunderground v.1.15,2013-03-28 08:21:00,
2013-03-28 04:23:00,49.7,45.7,30.16,NNW,335,0.0,0.0,86,0.00,,,0.00,Wunderground v.1.15,2013-03-28 08:23:00,
2013-03-28 04:24:00,49.6,45.6,30.16,NNW,335,0.0,0.0,86,0.00,,,0.00,Wunderground v.1.15,2013-03-28 08:24:00,
2013-03-28 04:25:00,49.6,45.6,30.16,NNW,335,0.0,0.0,86,0.00,,,0.00,Wunderground v.1.15,2013-03-28 08:25:00,
2013-03-28 04:27:00,49.6,45.6,30.16,NNW,335,0.0,0.0,86,0.00,,,0.00,Wunderground v.1.15,2013-03-28 08:27:00,
2013-03-28 04:28:00,49.6,45.6,30.16,NNW,335,0.0,0.0,86,0.00,,,0.00,Wunderground v.1.15,2013-03-28 08:28:00,
2013-03-28 04:29:00,49.6,45.6,30.16,NNW,335,0.0,0.0,86,0.00,,,0.00,Wunderground v.1.15,2013-03-28 08:29:00,
2013-03-28 04:31:00,49.5,45.5,30.16,NNW,335,0.0,0.0,86,0.00,,,0.00,Wunderground v.1.15,2013-03-28 08:31:00,
2013-03-28 04:33:00,49.5,45.5,30.16,NNW,335,0.0,0.0,86,0.00,,,0.00,Wunderground v.1.15,2013-03-28 08:33:00,
2013-03-28 04:34:00,49.5,45.5,30.16,NNW,336,0.0,0.0,86,0.00,,,0.00,Wunderground v.1.15,2013-03-28 08:34:00,
2013-03-28 04:36:00,49.4,45.4,30.16,NNW,335,0.0,0.0,86,0.00,,,0.00,Wunderground v.1.15,2013-03-28 08:36:00,
2013-03-28 04:38:00,49.4,45.4,30.16,NNW,335,0.0,0.0,86,0.00,,,0.00,Wunderground v.1.15,2013-03-28 08:38:00,
2013-03-28 04:39:00,49.3,45.3,30.16,NNW,335,0.0,0.0,86,0.00,,,0.00,Wunderground v.1.15,2013-03-28 08:39:00,
2013-03-28 04:41:00,49.3,45.3,30.16,NNW,335,0.0,0.0,86,0.00,,,0.00,Wunderground v.1.15,2013-03-28 08:41:00,
2013-03-28 04:43:00,49.2,45.2,30.16,NNW,335,0.0,0.0,86,0.00,,,0.00,Wunderground v.1.15,2013-03-28 08:43:00,
2013-03-28 04:44:00,49.2,45.2,30.16,NNW,335,0.0,0.0,86,0.00,,,0.00,Wunderground v.1.15,2013-03-28 08:44:00,
2013-03-28 04:46:00,49.2,45.2,30.16,NNW,336,0.0,0.0,86,0.00,,,0.00,Wunderground v.1.15,2013-03-28 08:46:00,
2013-03-28 04:48:00,49.1,45.1,30.16,NNW,335,0.0,0.0,86,0.00,,,0.00,Wunderground v.1.15,2013-03-28 08:48:00,
2013-03-28 04:49:00,49.1,45.1,30.16,NNW,335,0.0,0.0,86,0.00,,,0.00,Wunderground v.1.15,2013-03-28 08:49:00,
2013-03-28 04:51:00,49.2,45.5,30.16,NNW,335,0.0,0.0,87,0.00,,,0.00,Wunderground v.1.15,2013-03-28 08:51:00,
2013-03-28 04:53:00,49.2,45.5,30.16,NNW,335,0.0,0.0,87,0.00,,,0.00,Wunderground v.1.15,2013-03-28 08:53:00,
2013-03-28 04:54:00,49.2,45.5,30.16,NNW,336,0.0,0.0,87,0.00,,,0.00,Wunderground v.1.15,2013-03-28 08:54:00,
2013-03-28 04:57:00,49.2,45.5,30.16,NNW,336,0.0,0.0,87,0.00,,,0.00,Wunderground v.1.15,2013-03-28 08:57:00,
2013-03-28 04:58:00,49.2,45.5,30.16,NNW,336,0.0,0.0,87,0.00,,,0.00,Wunderground v.1.15,2013-03-28 08:58:00,
2013-03-28 04:59:00,49.3,45.6,30.16,NNW,336,0.0,0.0,87,0.00,,,0.00,Wunderground v.1.15,2013-03-28 08:59:00,
2013-03-28 05:02:00,49.3,45.6,30.16,NNW,336,0.0,0.0,87,0.00,,,0.00,Wunderground v.1.15,2013-03-28 09:02:00,
2013-03-28 05:03:00,49.4,45.7,30.16,NNW,336,0.0,0.0,87,0.00,,,0.00,Wunderground v.1.15,2013-03-28 09:03:00,
2013-03-28 05:06:00,49.4,45.7,30.16,NNW,335,0.0,0.0,87,0.00,,,0.00,Wunderground v.1.15,2013-03-28 09:06:00,
2013-03-28 05:07:00,49.5,45.8,30.16,NNW,335,0.0,0.0,87,0.00,,,0.00,Wunderground v.1.15,2013-03-28 09:07:00,
2013-03-28 05:08:00,49.5,45.8,30.15,NNW,336,0.0,0.0,87,0.00,,,0.00,Wunderground v.1.15,2013-03-28 09:08:00,
2013-03-28 05:12:00,49.5,45.8,30.15,NNW,335,0.0,0.0,87,0.00,,,0.00,Wunderground v.1.15,2013-03-28 09:12:00,
2013-03-28 05:13:00,49.5,45.8,30.15,NNW,335,0.0,0.0,87,0.00,,,0.00,Wunderground v.1.15,2013-03-28 09:13:00,
2013-03-28 05:14:00,49.5,45.8,30.16,NNW,335,0.0,0.0,87,0.00,,,0.00,Wunderground v.1.15,2013-03-28 09:14:00,
2013-03-28 05:17:00,49.5,45.8,30.16,NNW,335,0.0,0.0,87,0.00,,,0.00,Wunderground v.1.15,2013-03-28 09:17:00,
2013-03-28 05:18:00,49.6,45.9,30.16,NNW,335,0.0,1.0,87,0.00,,,0.00,Wunderground v.1.15,2013-03-28 09:18:00,
2013-03-28 05:20:00,49.6,45.9,30.16,NNW,335,0.0,1.0,87,0.00,,,0.00,Wunderground v.1.15,2013-03-28 09:20:00,
2013-03-28 05:22:00,49.6,46.2,30.16,NNW,335,0.0,0.0,88,0.00,,,0.00,Wunderground v.1.15,2013-03-28 09:22:00,
2013-03-28 05:23:00,49.6,46.2,30.16,NNW,335,0.0,0.0,88,0.00,,,0.00,Wunderground v.1.15,2013-03-28 09:23:00,
2013-03-28 05:24:00,49.6,46.2,30.16,NNW,335,0.0,0.0,88,0.00,,,0.00,Wunderground v.1.15,2013-03-28 09:24:00,
2013-03-28 05:26:00,49.5,46.1,30.16,NNW,335,0.0,0.0,88,0.00,,,0.00,Wunderground v.1.15,2013-03-28 09:26:00,
2013-03-28 05:27:00,49.5,46.1,30.16,NNW,335,0.0,0.0,88,0.00,,,0.00,Wunderground v.1.15,2013-03-28 09:27:00,
2013-03-28 05:29:00,49.5,46.1,30.16,NNW,335,0.0,0.0,88,0.00,,,0.00,Wunderground v.1.15,2013-03-28 09:29:00,
2013-03-28 05:30:00,49.5,46.1,30.16,NNW,335,0.0,0.0,88,0.00,,,0.00,Wunderground v.1.15,2013-03-28 09:30:00,
2013-03-28 05:31:00,49.5,46.1,30.16,NNW,335,0.0,1.0,88,0.00,,,0.00,Wunderground v.1.15,2013-03-28 09:31:00,
2013-03-28 05:33:00,49.4,46.0,30.16,NNW,335,0.0,1.0,88,0.00,,,0.00,Wunderground v.1.15,2013-03-28 09:33:00,
2013-03-28 05:34:00,49.4,46.0,30.16,NNW,335,0.0,1.0,88,0.00,,,0.00,Wunderground v.1.15,2013-03-28 09:34:00,
2013-03-28 05:35:00,49.4,46.0,30.16,NNW,335,0.0,1.0,88,0.00,,,0.00,Wunderground v.1.15,2013-03-28 09:35:00,
2013-03-28 05:37:00,49.4,46.0,30.16,NNW,335,0.0,1.0,88,0.00,,,0.00,Wunderground v.1.15,2013-03-28 09:37:00,
2013-03-28 05:38:00,49.3,45.9,30.16,NNW,335,0.0,1.0,88,0.00,,,0.00,Wunderground v.1.15,2013-03-28 09:38:00,
2013-03-28 05:39:00,49.4,46.0,30.16,NNW,335,0.0,1.0,88,0.00,,,0.00,Wunderground v.1.15,2013-03-28 09:39:00,
2013-03-28 05:41:00,49.3,45.9,30.16,NNW,335,0.0,0.0,88,0.00,,,0.00,Wunderground v.1.15,2013-03-28 09:41:00,
2013-03-28 05:42:00,49.2,45.8,30.16,NNW,335,0.0,0.0,88,0.00,,,0.00,Wunderground v.1.15,2013-03-28 09:42:00,
2013-03-28 05:43:00,49.2,45.8,30.16,NNW,335,0.0,0.0,88,0.00,,,0.00,Wunderground v.1.15,2013-03-28 09:43:00,
2013-03-28 05:45:00,49.2,45.8,30.16,NNW,335,0.0,0.0,88,0.00,,,0.00,Wunderground v.1.15,2013-03-28 09:45:00,
2013-03-28 05:46:00,49.2,45.8,30.16,NNW,335,0.0,0.0,88,0.00,,,0.00,Wunderground v.1.15,2013-03-28 09:46:00,
2013-03-28 05:48:00,49.1,46.0,30.16,NNW,335,0.0,0.0,89,0.00,,,0.00,Wunderground v.1.15,2013-03-28 09:48:00,
2013-03-28 05:50:00,49.1,46.0,30.16,NNW,335,0.0,0.0,89,0.00,,,0.00,Wunderground v.1.15,2013-03-28 09:50:00,
2013-03-28 05:52:00,49.1,46.0,30.16,NNW,335,0.0,0.0,89,0.00,,,0.00,Wunderground v.1.15,2013-03-28 09:52:00,
2013-03-28 05:53:00,49.1,46.0,30.17,NNW,335,0.0,0.0,89,0.00,,,0.00,Wunderground v.1.15,2013-03-28 09:53:00,
2013-03-28 05:56:00,49.1,46.0,30.16,NNW,335,0.0,0.0,89,0.00,,,0.00,Wunderground v.1.15,2013-03-28 09:56:00,
2013-03-28 05:57:00,49.1,46.0,30.16,NNW,335,0.0,0.0,89,0.00,,,0.00,Wunderground v.1.15,2013-03-28 09:57:00,
2013-03-28 05:58:00,49.1,46.0,30.16,NNW,335,0.0,0.0,89,0.00,,,0.00,Wunderground v.1.15,2013-03-28 09:58:00,
2013-03-28 05:59:00,49.1,46.0,30.17,NNW,335,0.0,0.0,89,0.00,,,0.00,Wunderground v.1.15,2013-03-28 09:59:00,
2013-03-28 06:02:00,49.0,45.9,30.17,NNW,335,0.0,0.0,89,0.00,,,0.00,Wunderground v.1.15,2013-03-28 10:02:00,
2013-03-28 06:03:00,49.0,45.9,30.17,NNW,335,1.0,1.0,89,0.00,,,0.00,Wunderground v.1.15,2013-03-28 10:03:00,
2013-03-28 06:04:00,48.9,45.8,30.17,NNW,336,0.0,1.0,89,0.00,,,0.00,Wunderground v.1.15,2013-03-28 10:04:00,
2013-03-28 06:07:00,48.9,45.8,30.17,NNW,333,0.0,4.0,89,0.00,,,0.00,Wunderground v.1.15,2013-03-28 10:07:00,
2013-03-28 06:08:00,48.9,46.1,30.17,NNW,333,0.0,4.0,90,0.00,,,0.00,Wunderground v.1.15,2013-03-28 10:08:00,
2013-03-28 06:09:00,48.9,46.1,30.17,NNW,333,0.0,4.0,90,0.00,,,0.00,Wunderground v.1.15,2013-03-28 10:09:00,
2013-03-28 06:12:00,48.9,46.1,30.17,NNW,333,0.0,0.0,90,0.00,,,0.00,Wunderground v.1.15,2013-03-28 10:12:00,
2013-03-28 06:13:00,48.9,46.1,30.17,NNW,332,0.0,1.0,90,0.00,,,0.00,Wunderground v.1.15,2013-03-28 10:13:00,
2013-03-28 06:14:00,48.9,46.1,30.17,NNW,332,0.0,1.0,90,0.00,,,0.00,Wunderground v.1.15,2013-03-28 10:14:00,
2013-03-28 06:15:00,48.8,46.0,30.17,NNW,332,0.0,1.0,90,0.00,,,0.00,Wunderground v.1.15,2013-03-28 10:15:00,
2013-03-28 06:17:00,48.8,46.0,30.17,NNW,332,0.0,1.0,90,0.00,,,0.00,Wunderground v.1.15,2013-03-28 10:17:00,
2013-03-28 06:18:00,48.8,46.0,30.17,NNW,332,0.0,1.0,90,0.00,,,0.00,Wunderground v.1.15,2013-03-28 10:18:00,
2013-03-28 06:20:00,48.7,45.9,30.17,NNW,333,0.0,1.0,90,0.00,,,0.00,Wunderground v.1.15,2013-03-28 10:20:00,
2013-03-28 06:22:00,48.7,45.9,30.17,NNW,334,1.0,2.0,90,0.00,,,0.00,Wunderground v.1.15,2013-03-28 10:22:00,
2013-03-28 06:23:00,48.7,45.9,30.17,NNW,334,0.0,2.0,90,0.00,,,0.00,Wunderground v.1.15,2013-03-28 10:23:00,
2013-03-28 06:25:00,48.7,45.9,30.17,NNW,331,0.0,2.0,90,0.00,,,0.00,Wunderground v.1.15,2013-03-28 10:25:00,
2013-03-28 06:26:00,48.7,45.9,30.17,NNW,331,0.0,2.0,90,0.00,,,0.00,Wunderground v.1.15,2013-03-28 10:26:00,
2013-03-28 06:28:00,48.6,45.8,30.17,NNW,337,0.0,2.0,90,0.00,,,0.00,Wunderground v.1.15,2013-03-28 10:28:00,
2013-03-28 06:30:00,48.5,45.7,30.17,NNW,337,0.0,0.0,90,0.00,,,0.00,Wunderground v.1.15,2013-03-28 10:30:00,
2013-03-28 06:31:00,48.5,45.7,30.17,NNW,334,0.0,0.0,90,0.00,,,0.00,Wunderground v.1.15,2013-03-28 10:31:00,
2013-03-28 06:33:00,48.4,45.3,30.17,NNW,334,0.0,1.0,89,0.00,,,0.00,Wunderground v.1.15,2013-03-28 10:33:00,
2013-03-28 06:35:00,48.3,45.2,30.17,NNW,334,0.0,1.0,89,0.00,,,0.00,Wunderground v.1.15,2013-03-28 10:35:00,
2013-03-28 06:37:00,48.3,45.2,30.17,NNW,334,0.0,1.0,89,0.00,,,0.00,Wunderground v.1.15,2013-03-28 10:37:00,
2013-03-28 06:38:00,48.2,45.4,30.17,NNW,334,0.0,1.0,90,0.00,,,0.00,Wunderground v.1.15,2013-03-28 10:38:00,
2013-03-28 06:40:00,48.1,45.3,30.18,NNW,334,0.0,0.0,90,0.00,,,0.00,Wunderground v.1.15,2013-03-28 10:40:00,
2013-03-28 06:42:00,48.1,45.3,30.18,NNW,334,0.0,0.0,90,0.00,,,0.00,Wunderground v.1.15,2013-03-28 10:42:00,
2013-03-28 06:43:00,48.1,45.3,30.17,NNW,334,0.0,0.0,90,0.00,,,0.00,Wunderground v.1.15,2013-03-28 10:43:00,
2013-03-28 06:44:00,48.1,45.3,30.17,NNW,334,0.0,0.0,90,0.00,,,0.00,Wunderground v.1.15,2013-03-28 10:44:00,
2013-03-28 06:45:00,48.1,45.3,30.18,NNW,334,0.0,0.0,90,0.00,,,0.00,Wunderground v.1.15,2013-03-28 10:45:00,
2013-03-28 06:48:00,48.1,45.3,30.17,NNW,334,0.0,0.0,90,0.00,,,0.00,Wunderground v.1.15,2013-03-28 10:48:00,
2013-03-28 06:49:00,48.1,45.3,30.17,NNW,334,0.0,1.0,90,0.00,,,0.00,Wunderground v.1.15,2013-03-28 10:49:00,
2013-03-28 06:50:00,48.0,45.2,30.17,NNW,334,0.0,0.0,90,0.00,,,0.00,Wunderground v.1.15,2013-03-28 10:50:00,
2013-03-28 06:53:00,48.0,45.2,30.18,NNW,334,0.0,1.0,90,0.00,,,0.00,Wunderground v.1.15,2013-03-28 10:53:00,
2013-03-28 06:54:00,47.9,45.1,30.18,NNW,334,0.0,1.0,90,0.00,,,0.00,Wunderground v.1.15,2013-03-28 10:54:00,
2013-03-28 06:56:00,47.9,45.1,30.18,NNW,334,0.0,2.0,90,0.00,,,0.00,Wunderground v.1.15,2013-03-28 10:56:00,
2013-03-28 06:58:00,47.8,45.0,30.18,NNW,334,0.0,2.0,90,0.00,,,0.00,Wunderground v.1.15,2013-03-28 10:58:00,
2013-03-28 06:59:00,47.8,45.0,30.18,NNW,334,0.0,2.0,90,0.00,,,0.00,Wunderground v.1.15,2013-03-28 10:59:00,
2013-03-28 07:00:00,47.8,45.0,30.18,NNW,334,0.0,2.0,90,0.00,,,0.00,Wunderground v.1.15,2013-03-28 11:00:00,
2013-03-28 07:01:00,47.8,45.0,30.18,NNW,334,1.0,1.0,90,0.00,,,0.00,Wunderground v.1.15,2013-03-28 11:01:00,
2013-03-28 07:03:00,47.7,45.2,30.18,NNW,334,0.0,1.0,91,0.00,,,0.00,Wunderground v.1.15,2013-03-28 11:03:00,
2013-03-28 07:04:00,47.7,45.2,30.18,NNW,334,0.0,1.0,91,0.00,,,0.00,Wunderground v.1.15,2013-03-28 11:04:00,
2013-03-28 07:05:00,47.7,45.2,30.18,NNW,334,0.0,1.0,91,0.00,,,0.00,Wunderground v.1.15,2013-03-28 11:05:00,
2013-03-28 07:06:00,47.6,44.8,30.18,NNW,338,0.0,1.0,90,0.00,,,0.00,Wunderground v.1.15,2013-03-28 11:06:00,
2013-03-28 07:09:00,47.6,44.8,30.18,NNW,337,0.0,1.0,90,0.00,,,0.00,Wunderground v.1.15,2013-03-28 11:09:00,
2013-03-28 07:10:00,47.5,45.0,30.18,NNW,337,0.0,0.0,91,0.00,,,0.00,Wunderground v.1.15,2013-03-28 11:10:00,
2013-03-28 07:12:00,47.5,45.0,30.18,NNW,337,0.0,0.0,91,0.00,,,0.00,Wunderground v.1.15,2013-03-28 11:12:00,
2013-03-28 07:15:00,47.4,44.9,30.18,NNW,337,0.0,1.0,91,0.00,,,0.00,Wunderground v.1.15,2013-03-28 11:15:00,
2013-03-28 07:17:00,47.4,44.9,30.18,NNW,337,0.0,1.0,91,0.00,,,0.00,Wunderground v.1.15,2013-03-28 11:17:00,
2013-03-28 07:20:00,47.4,44.9,30.18,NNW,337,0.0,0.0,91,0.00,,,0.00,Wunderground v.1.15,2013-03-28 11:20:00,
2013-03-28 07:23:00,47.2,44.7,30.18,NNW,337,0.0,0.0,91,0.00,,,0.00,Wunderground v.1.15,2013-03-28 11:23:00,
2013-03-28 07:25:00,47.1,44.6,30.18,NNW,337,0.0,1.0,91,0.00,,,0.00,Wunderground v.1.15,2013-03-28 11:25:00,
2013-03-28 07:26:00,47.1,44.6,30.18,NNW,337,0.0,1.0,91,0.00,,,0.00,Wunderground v.1.15,2013-03-28 11:26:00,
2013-03-28 07:28:00,47.1,44.6,30.18,NNW,337,0.0,1.0,91,0.00,,,0.00,Wunderground v.1.15,2013-03-28 11:28:00,
2013-03-28 07:30:00,47.3,44.8,30.18,NNW,337,0.0,0.0,91,0.00,,,0.00,Wunderground v.1.15,2013-03-28 11:30:00,
2013-03-28 07:31:00,47.3,44.8,30.18,NNW,337,0.0,0.0,91,0.00,,,0.00,Wunderground v.1.15,2013-03-28 11:31:00,
2013-03-28 07:32:00,47.4,44.9,30.18,NNW,337,0.0,0.0,91,0.00,,,0.00,Wunderground v.1.15,2013-03-28 11:32:00,
2013-03-28 07:33:00,47.5,45.0,30.18,NNW,337,0.0,0.0,91,0.00,,,0.00,Wunderground v.1.15,2013-03-28 11:33:00,
2013-03-28 07:35:00,47.8,45.6,30.18,NNW,336,0.0,1.0,92,0.00,,,0.00,Wunderground v.1.15,2013-03-28 11:35:00,
2013-03-28 07:37:00,47.9,45.7,30.18,NNW,336,0.0,1.0,92,0.00,,,0.00,Wunderground v.1.15,2013-03-28 11:37:00,
2013-03-28 07:38:00,48.0,45.8,30.18,NNW,336,0.0,1.0,92,0.00,,,0.00,Wunderground v.1.15,2013-03-28 11:38:00,
2013-03-28 07:42:00,48.4,46.2,30.18,NNW,342,0.0,0.0,92,0.00,,,0.00,Wunderground v.1.15,2013-03-28 11:42:00,
2013-03-28 07:43:00,48.6,46.4,30.19,NNW,342,0.0,0.0,92,0.00,,,0.00,Wunderground v.1.15,2013-03-28 11:43:00,
2013-03-28 07:47:00,49.1,46.9,30.18,ESE,103,0.0,1.0,92,0.00,,,0.00,Wunderground v.1.15,2013-03-28 11:47:00,
2013-03-28 07:48:00,49.2,46.7,30.18,East,99,0.0,1.0,91,0.00,,,0.00,Wunderground v.1.15,2013-03-28 11:48:00,
2013-03-28 07:52:00,49.8,47.3,30.19,East,90,0.0,0.0,91,0.00,,,0.00,Wunderground v.1.15,2013-03-28 11:52:00,
2013-03-28 07:53:00,49.9,47.4,30.19,East,90,0.0,0.0,91,0.00,,,0.00,Wunderground v.1.15,2013-03-28 11:53:00,
2013-03-28 07:54:00,50.1,47.6,30.19,East,90,0.0,0.0,91,0.00,,,0.00,Wunderground v.1.15,2013-03-28 11:54:00,
2013-03-28 07:57:00,50.5,47.7,30.19,East,90,0.0,0.0,90,0.00,,,0.00,Wunderground v.1.15,2013-03-28 11:57:00,
2013-03-28 07:58:00,50.7,47.9,30.19,East,88,0.0,1.0,90,0.00,,,0.00,Wunderground v.1.15,2013-03-28 11:58:00,
2013-03-28 08:00:00,50.9,48.1,30.19,East,87,0.0,0.0,90,0.00,,,0.00,Wunderground v.1.15,2013-03-28 12:00:00,
2013-03-28 08:02:00,51.3,48.2,30.19,NNW,336,0.0,1.0,89,0.00,,,0.00,Wunderground v.1.15,2013-03-28 12:02:00,
2013-03-28 08:03:00,51.4,48.3,30.19,NNW,336,0.0,1.0,89,0.00,,,0.00,Wunderground v.1.15,2013-03-28 12:03:00,
2013-03-28 08:04:00,51.4,48.3,30.19,NNW,336,0.0,1.0,89,0.00,,,0.00,Wunderground v.1.15,2013-03-28 12:04:00,
2013-03-28 08:05:00,51.6,48.5,30.19,NNW,340,0.0,1.0,89,0.00,,,0.00,Wunderground v.1.15,2013-03-28 12:05:00,
2013-03-28 08:08:00,52.0,48.6,30.19,North,355,0.0,1.0,88,0.00,,,0.00,Wunderground v.1.15,2013-03-28 12:08:00,
2013-03-28 08:09:00,52.1,48.7,30.19,North,355,0.0,1.0,88,0.00,,,0.00,Wunderground v.1.15,2013-03-28 12:09:00,
2013-03-28 08:10:00,52.2,48.4,30.19,North,355,0.0,0.0,87,0.00,,,0.00,Wunderground v.1.15,2013-03-28 12:10:00,
2013-03-28 08:13:00,52.6,48.8,30.19,North,360,0.0,1.0,87,0.00,,,0.00,Wunderground v.1.15,2013-03-28 12:13:00,
2013-03-28 08:14:00,52.6,48.5,30.19,North,360,0.0,1.0,86,0.00,,,0.00,Wunderground v.1.15,2013-03-28 12:14:00,
2013-03-28 08:15:00,52.7,48.6,30.19,North,349,0.0,1.0,86,0.00,,,0.00,Wunderground v.1.15,2013-03-28 12:15:00,
2013-03-28 08:19:00,53.2,49.1,30.19,North,351,0.0,1.0,86,0.00,,,0.00,Wunderground v.1.15,2013-03-28 12:19:00,
2013-03-28 08:20:00,53.5,49.1,30.19,North,5,0.0,2.0,85,0.00,,,0.00,Wunderground v.1.15,2013-03-28 12:20:00,
2013-03-28 08:24:00,54.1,49.1,30.19,North,9,0.0,5.0,83,0.00,,,0.00,Wunderground v.1.15,2013-03-28 12:24:00,
2013-03-28 08:25:00,54.2,49.1,30.19,North,9,0.0,5.0,83,0.00,,,0.00,Wunderground v.1.15,2013-03-28 12:25:00,
2013-03-28 08:28:00,54.6,49.5,30.19,North,5,1.0,5.0,83,0.00,,,0.00,Wunderground v.1.15,2013-03-28 12:28:00,
2013-03-28 08:29:00,54.8,49.1,30.19,NNE,12,0.0,6.0,81,0.00,,,0.00,Wunderground v.1.15,2013-03-28 12:29:00,
2013-03-28 08:30:00,54.9,49.2,30.19,North,5,4.0,4.0,81,0.00,,,0.00,Wunderground v.1.15,2013-03-28 12:30:00,
2013-03-28 08:31:00,55.1,49.4,30.19,North,360,0.0,5.0,81,0.00,,,0.00,Wunderground v.1.15,2013-03-28 12:31:00,
2013-03-28 08:33:00,55.2,49.1,30.19,NNE,13,2.0,5.0,80,0.00,,,0.00,Wunderground v.1.15,2013-03-28 12:33:00,
2013-03-28 08:35:00,55.5,49.4,30.19,North,360,0.0,5.0,80,0.00,,,0.00,Wunderground v.1.15,2013-03-28 12:35:00,
2013-03-28 08:36:00,55.6,49.5,30.19,NNW,333,0.0,5.0,80,0.00,,,0.00,Wunderground v.1.15,2013-03-28 12:36:00,
2013-03-28 08:38:00,55.8,49.7,30.19,NNW,333,0.0,5.0,80,0.00,,,0.00,Wunderground v.1.15,2013-03-28 12:38:00,
2013-03-28 08:40:00,56.1,49.7,30.19,North,360,1.0,4.0,79,0.00,,,0.00,Wunderground v.1.15,2013-03-28 12:40:00,
2013-03-28 08:41:00,56.2,49.1,30.20,NNW,342,7.0,7.0,77,0.00,,,0.00,Wunderground v.1.15,2013-03-28 12:41:00,
2013-03-28 08:45:00,56.3,48.8,30.20,North,355,6.0,8.0,76,0.00,,,0.00,Wunderground v.1.15,2013-03-28 12:45:00,
2013-03-28 08:47:00,56.4,48.9,30.20,NNW,327,4.0,9.0,76,0.00,,,0.00,Wunderground v.1.15,2013-03-28 12:47:00,
2013-03-28 08:50:00,56.7,49.2,30.20,North,349,6.0,6.0,76,0.00,,,0.00,Wunderground v.1.15,2013-03-28 12:50:00,
2013-03-28 08:52:00,56.9,49.4,30.20,North,355,1.0,6.0,76,0.00,,,0.00,Wunderground v.1.15,2013-03-28 12:52:00,
2013-03-28 08:55:00,57.3,49.8,30.20,NNW,342,1.0,7.0,76,0.00,,,0.00,Wunderground v.1.15,2013-03-28 12:55:00,
2013-03-28 08:57:00,57.5,49.6,30.20,North,360,0.0,7.0,75,0.00,,,0.00,Wunderground v.1.15,2013-03-28 12:57:00,
2013-03-28 09:00:00,57.8,49.9,30.20,North,355,1.0,6.0,75,0.00,,,0.00,Wunderground v.1.15,2013-03-28 13:00:00,
2013-03-28 09:02:00,58.0,49.8,30.20,NNW,348,0.0,6.0,74,0.00,,,0.00,Wunderground v.1.15,2013-03-28 13:02:00,
2013-03-28 09:06:00,58.6,50.3,30.20,NNE,23,6.0,8.0,74,0.00,,,0.00,Wunderground v.1.15,2013-03-28 13:06:00,
2013-03-28 09:07:00,58.7,49.7,30.21,NNE,12,0.0,8.0,72,0.00,,,0.00,Wunderground v.1.15,2013-03-28 13:07:00,
2013-03-28 09:08:00,58.9,50.6,30.21,North,355,5.0,8.0,74,0.00,,,0.00,Wunderground v.1.15,2013-03-28 13:08:00,
2013-03-28 09:11:00,59.3,50.3,30.21,North,360,0.0,7.0,72,0.00,,,0.00,Wunderground v.1.15,2013-03-28 13:11:00,
2013-03-28 09:12:00,59.3,50.3,30.21,NNW,333,3.0,7.0,72,0.00,,,0.00,Wunderground v.1.15,2013-03-28 13:12:00,
2013-03-28 09:13:00,59.4,50.0,30.21,NNE,15,4.0,7.0,71,0.00,,,0.00,Wunderground v.1.15,2013-03-28 13:13:00,
2013-03-28 09:14:00,59.5,49.7,30.21,North,5,0.0,7.0,70,0.00,,,0.00,Wunderground v.1.15,2013-03-28 13:14:00,
2013-03-28 09:16:00,59.8,50.4,30.21,North,360,0.0,7.0,71,0.00,,,0.00,Wunderground v.1.15,2013-03-28 13:16:00,
2013-03-28 09:18:00,59.9,50.5,30.21,North,355,0.0,7.0,71,0.00,,,0.00,Wunderground v.1.15,2013-03-28 13:18:00,
2013-03-28 09:19:00,60.1,51.0,30.21,North,355,1.0,7.0,72,0.00,,,0.00,Wunderground v.1.15,2013-03-28 13:19:00,
2013-03-28 09:22:00,60.4,51.3,30.21,NW,324,0.0,5.0,72,0.00,,,0.00,Wunderground v.1.15,2013-03-28 13:22:00,
2013-03-28 09:23:00,60.5,51.4,30.21,North,355,7.0,9.0,72,0.00,,,0.00,Wunderground v.1.15,2013-03-28 13:23:00,
2013-03-28 09:24:00,60.5,51.0,30.21,North,349,0.0,9.0,71,0.00,,,0.00,Wunderground v.1.15,2013-03-28 13:24:00,
2013-03-28 09:27:00,60.5,50.7,30.21,NNW,346,0.0,10.0,70,0.00,,,0.00,Wunderground v.1.15,2013-03-28 13:27:00,
2013-03-28 09:28:00,60.5,50.7,30.22,North,9,3.0,10.0,70,0.00,,,0.00,Wunderground v.1.15,2013-03-28 13:28:00,
2013-03-28 09:29:00,60.5,50.7,30.22,NNE,18,1.0,10.0,70,0.00,,,0.00,Wunderground v.1.15,2013-03-28 13:29:00,
2013-03-28 09:33:00,61.0,50.8,30.22,NW,308,3.0,8.0,69,0.00,,,0.00,Wunderground v.1.15,2013-03-28 13:33:00,
2013-03-28 09:34:00,61.0,50.4,30.22,NNW,333,0.0,8.0,68,0.00,,,0.00,Wunderground v.1.15,2013-03-28 13:34:00,
2013-03-28 09:35:00,61.0,50.4,30.22,North,5,5.0,8.0,68,0.00,,,0.00,Wunderground v.1.15,2013-03-28 13:35:00,
2013-03-28 09:39:00,61.4,51.1,30.22,NNW,328,1.0,8.0,69,0.00,,,0.00,Wunderground v.1.15,2013-03-28 13:39:00,
2013-03-28 09:40:00,61.7,52.2,30.22,North,360,0.0,3.0,71,0.00,,,0.00,Wunderground v.1.15,2013-03-28 13:40:00,
2013-03-28 09:44:00,62.1,51.8,30.22,NNW,333,0.0,7.0,69,0.00,,,0.00,Wunderground v.1.15,2013-03-28 13:44:00,
2013-03-28 09:45:00,62.1,51.8,30.22,NNW,348,0.0,8.0,69,0.00,,,0.00,Wunderground v.1.15,2013-03-28 13:45:00,
2013-03-28 09:47:00,62.1,51.4,30.22,NNW,332,1.0,8.0,68,0.00,,,0.00,Wunderground v.1.15,2013-03-28 13:47:00,
2013-03-28 09:49:00,62.2,51.5,30.22,NW,325,0.0,8.0,68,0.00,,,0.00,Wunderground v.1.15,2013-03-28 13:49:00,
2013-03-28 09:50:00,62.3,52.0,30.22,North,5,0.0,2.0,69,0.00,,,0.00,Wunderground v.1.15,2013-03-28 13:50:00,
2013-03-28 09:51:00,62.5,52.6,30.22,NNW,335,0.0,3.0,70,0.00,,,0.00,Wunderground v.1.15,2013-03-28 13:51:00,
2013-03-28 09:52:00,62.6,52.3,30.22,North,350,2.0,6.0,69,0.00,,,0.00,Wunderground v.1.15,2013-03-28 13:52:00,
2013-03-28 09:54:00,62.9,51.8,30.22,NNW,331,0.0,7.0,67,0.00,,,0.00,Wunderground v.1.15,2013-03-28 13:54:00,
2013-03-28 09:55:00,63.0,51.9,30.22,NNW,329,0.0,7.0,67,0.00,,,0.00,Wunderground v.1.15,2013-03-28 13:55:00,
2013-03-28 09:56:00,63.0,51.9,30.22,NNW,328,4.0,7.0,67,0.00,,,0.00,Wunderground v.1.15,2013-03-28 13:56:00,
2013-03-28 09:57:00,63.1,52.0,30.22,NW,322,0.0,7.0,67,0.00,,,0.00,Wunderground v.1.15,2013-03-28 13:57:00,
2013-03-28 10:00:00,63.2,51.6,30.23,North,9,0.0,2.0,66,0.00,,,0.00,Wunderground v.1.15,2013-03-28 14:00:00,
2013-03-28 10:01:00,63.5,53.1,30.22,NW,306,8.0,8.0,69,0.00,,,0.00,Wunderground v.1.15,2013-03-28 14:01:00,
2013-03-28 10:02:00,63.6,52.0,30.23,NNW,343,5.0,9.0,66,0.00,,,0.00,Wunderground v.1.15,2013-03-28 14:02:00,
2013-03-28 10:05:00,63.6,51.6,30.23,NNE,22,0.0,11.0,65,0.00,,,0.00,Wunderground v.1.15,2013-03-28 14:05:00,
2013-03-28 10:07:00,63.6,52.0,30.23,North,360,4.0,11.0,66,0.00,,,0.00,Wunderground v.1.15,2013-03-28 14:07:00,
2013-03-28 10:10:00,63.6,50.8,30.23,NNE,14,7.0,9.0,63,0.00,,,0.00,Wunderground v.1.15,2013-03-28 14:10:00,
2013-03-28 10:12:00,63.6,51.6,30.23,North,351,0.0,9.0,65,0.00,,,0.00,Wunderground v.1.15,2013-03-28 14:12:00,
2013-03-28 10:14:00,64.0,51.1,30.23,NNE,17,3.0,9.0,63,0.00,,,0.00,Wunderground v.1.15,2013-03-28 14:14:00,
2013-03-28 10:16:00,64.0,51.1,30.23,North,360,10.0,10.0,63,0.00,,,0.00,Wunderground v.1.15,2013-03-28 14:16:00,
2013-03-28 10:18:00,64.1,50.8,30.23,NNE,17,4.0,11.0,62,0.00,,,0.00,Wunderground v.1.15,2013-03-28 14:18:00,
2013-03-28 10:20:00,64.1,51.7,30.23,NNW,335,0.0,3.0,64,0.00,,,0.00,Wunderground v.1.15,2013-03-28 14:20:00,
2013-03-28 10:21:00,64.4,51.5,30.23,NNW,335,1.0,8.0,63,0.00,,,0.00,Wunderground v.1.15,2013-03-28 14:21:00,
2013-03-28 10:22:00,64.4,52.0,30.24,North,5,4.0,8.0,64,0.00,,,0.00,Wunderground v.1.15,2013-03-28 14:22:00,
2013-03-28 10:23:00,64.7,51.4,30.23,North,360,5.0,8.0,62,0.00,,,0.00,Wunderground v.1.15,2013-03-28 14:23:00,
2013-03-28 10:25:00,64.8,51.9,30.24,North,5,1.0,8.0,63,0.00,,,0.00,Wunderground v.1.15,2013-03-28 14:25:00,
2013-03-28 10:27:00,65.1,51.8,30.24,NNW,338,3.0,8.0,62,0.00,,,0.00,Wunderground v.1.15,2013-03-28 14:27:00,
2013-03-28 10:29:00,65.4,52.0,30.23,NNE,31,2.0,8.0,62,0.00,,,0.00,Wunderground v.1.15,2013-03-28 14:29:00,
2013-03-28 10:30:00,65.4,51.1,30.24,North,360,0.0,2.0,60,0.00,,,0.00,Wunderground v.1.15,2013-03-28 14:30:00,
2013-03-28 10:32:00,65.4,52.0,30.24,NNE,33,1.0,5.0,62,0.00,,,0.00,Wunderground v.1.15,2013-03-28 14:32:00,
2013-03-28 10:33:00,65.7,53.2,30.24,North,9,0.0,5.0,64,0.00,,,0.00,Wunderground v.1.15,2013-03-28 14:33:00,
2013-03-28 10:35:00,66.1,53.6,30.24,North,355,10.0,10.0,64,0.00,,,0.00,Wunderground v.1.15,2013-03-28 14:35:00,
2013-03-28 10:38:00,66.4,52.5,30.23,North,360,4.0,10.0,61,0.00,,,0.00,Wunderground v.1.15,2013-03-28 14:38:00,
2013-03-28 10:39:00,66.5,52.6,30.24,North,360,0.0,10.0,61,0.00,,,0.00,Wunderground v.1.15,2013-03-28 14:39:00,
2013-03-28 10:41:00,66.7,52.4,30.24,North,9,0.0,2.0,60,0.00,,,0.00,Wunderground v.1.15,2013-03-28 14:41:00,
2013-03-28 10:43:00,67.0,53.1,30.24,NNW,348,0.0,5.0,61,0.00,,,0.00,Wunderground v.1.15,2013-03-28 14:43:00,
2013-03-28 10:44:00,67.1,53.2,30.24,North,360,1.0,5.0,61,0.00,,,0.00,Wunderground v.1.15,2013-03-28 14:44:00,
2013-03-28 10:46:00,67.4,53.0,30.24,North,355,8.0,8.0,60,0.00,,,0.00,Wunderground v.1.15,2013-03-28 14:46:00,
2013-03-28 10:48:00,67.4,52.1,30.24,North,10,1.0,8.0,58,0.00,,,0.00,Wunderground v.1.15,2013-03-28 14:48:00,
2013-03-28 10:49:00,67.2,51.4,30.24,NW,321,1.0,8.0,57,0.00,,,0.00,Wunderground v.1.15,2013-03-28 14:49:00,
2013-03-28 10:51:00,67.4,52.1,30.24,NNE,15,0.0,7.0,58,0.00,,,0.00,Wunderground v.1.15,2013-03-28 14:51:00,
2013-03-28 10:53:00,67.3,52.5,30.23,NNW,337,6.0,7.0,59,0.00,,,0.00,Wunderground v.1.15,2013-03-28 14:53:00,
2013-03-28 10:54:00,67.4,53.0,30.24,NNW,342,0.0,7.0,60,0.00,,,0.00,Wunderground v.1.15,2013-03-28 14:54:00,
2013-03-28 10:57:00,67.6,52.8,30.24,NNW,341,0.0,8.0,59,0.00,,,0.00,Wunderground v.1.15,2013-03-28 14:57:00,
2013-03-28 10:58:00,67.7,52.9,30.24,North,355,1.0,8.0,59,0.00,,,0.00,Wunderground v.1.15,2013-03-28 14:58:00,
2013-03-28 10:59:00,67.7,51.4,30.24,NNW,335,6.0,8.0,56,0.00,,,0.00,Wunderground v.1.15,2013-03-28 14:59:00,
2013-03-28 11:03:00,67.3,52.0,30.24,NNE,22,0.0,5.0,58,0.00,,,0.00,Wunderground v.1.15,2013-03-28 15:03:00,
2013-03-28 11:04:00,67.3,52.5,30.23,NNW,343,0.0,7.0,59,0.00,,,0.00,Wunderground v.1.15,2013-03-28 15:04:00,
2013-03-28 11:08:00,68.0,53.1,30.24,NNW,333,0.0,11.0,59,0.00,,,0.00,Wunderground v.1.15,2013-03-28 15:08:00,
2013-03-28 11:09:00,68.0,53.1,30.24,North,351,1.0,11.0,59,0.00,,,0.00,Wunderground v.1.15,2013-03-28 15:09:00,
2013-03-28 11:10:00,68.0,51.7,30.23,NNW,343,6.0,6.0,56,0.00,,,0.00,Wunderground v.1.15,2013-03-28 15:10:00,
2013-03-28 11:13:00,68.1,52.8,30.24,North,355,0.0,10.0,58,0.00,,,0.00,Wunderground v.1.15,2013-03-28 15:13:00,
2013-03-28 11:14:00,68.1,52.8,30.24,NNW,345,0.0,10.0,58,0.00,,,0.00,Wunderground v.1.15,2013-03-28 15:14:00,
2013-03-28 11:15:00,68.3,53.4,30.24,North,10,0.0,10.0,59,0.00,,,0.00,Wunderground v.1.15,2013-03-28 15:15:00,
2013-03-28 11:19:00,69.2,53.8,30.23,NNE,22,6.0,10.0,58,0.00,,,0.00,Wunderground v.1.15,2013-03-28 15:19:00,
2013-03-28 11:20:00,69.5,52.6,30.24,NW,309,0.0,4.0,55,0.00,,,0.00,Wunderground v.1.15,2013-03-28 15:20:00,
2013-03-28 11:24:00,69.5,52.1,30.23,North,351,9.0,10.0,54,0.00,,,0.00,Wunderground v.1.15,2013-03-28 15:24:00,
2013-03-28 11:25:00,69.3,51.9,30.23,NW,325,0.0,10.0,54,0.00,,,0.00,Wunderground v.1.15,2013-03-28 15:25:00,
2013-03-28 11:29:00,69.3,52.4,30.24,NNW,345,0.0,10.0,55,0.00,,,0.00,Wunderground v.1.15,2013-03-28 15:29:00,
2013-03-28 11:31:00,69.6,53.2,30.24,NNW,344,0.0,4.0,56,0.00,,,0.00,Wunderground v.1.15,2013-03-28 15:31:00,
2013-03-28 11:34:00,69.8,50.3,30.24,NNE,27,0.0,8.0,50,0.00,,,0.00,Wunderground v.1.15,2013-03-28 15:34:00,
2013-03-28 11:35:00,69.8,50.9,30.24,NE,53,0.0,8.0,51,0.00,,,0.00,Wunderground v.1.15,2013-03-28 15:35:00,
2013-03-28 11:36:00,69.4,51.0,30.24,NNE,23,0.0,8.0,52,0.00,,,0.00,Wunderground v.1.15,2013-03-28 15:36:00,
2013-03-28 11:39:00,69.4,52.5,30.24,NNW,331,0.0,8.0,55,0.00,,,0.00,Wunderground v.1.15,2013-03-28 15:39:00,
2013-03-28 11:40:00,69.5,53.1,30.24,NW,320,1.0,1.0,56,0.00,,,0.00,Wunderground v.1.15,2013-03-28 15:40:00,
2013-03-28 11:41:00,69.7,52.3,30.23,NW,314,2.0,8.0,54,0.00,,,0.00,Wunderground v.1.15,2013-03-28 15:41:00,
2013-03-28 11:44:00,69.9,52.0,30.23,NNW,331,1.0,8.0,53,0.00,,,0.00,Wunderground v.1.15,2013-03-28 15:44:00,
2013-03-28 11:45:00,70.0,52.6,30.23,North,360,1.0,8.0,54,0.00,,,0.00,Wunderground v.1.15,2013-03-28 15:45:00,
2013-03-28 11:46:00,70.0,52.1,30.24,North,360,0.0,8.0,53,0.00,,,0.00,Wunderground v.1.15,2013-03-28 15:46:00,
2013-03-28 11:49:00,69.2,50.3,30.23,NW,321,7.0,9.0,51,0.00,,,0.00,Wunderground v.1.15,2013-03-28 15:49:00,
2013-03-28 11:50:00,69.1,50.2,30.23,NNW,330,1.0,2.0,51,0.00,,,0.00,Wunderground v.1.15,2013-03-28 15:50:00,
2013-03-28 11:51:00,69.2,52.3,30.24,NW,311,0.0,9.0,55,0.00,,,0.00,Wunderground v.1.15,2013-03-28 15:51:00,
2013-03-28 11:55:00,70.1,53.2,30.24,NNW,327,1.0,9.0,55,0.00,,,0.00,Wunderground v.1.15,2013-03-28 15:55:00,
2013-03-28 11:56:00,70.6,52.6,30.23,NNW,330,1.0,9.0,53,0.00,,,0.00,Wunderground v.1.15,2013-03-28 15:56:00,
2013-03-28 12:00:00,70.8,51.8,30.23,NNW,347,0.0,2.0,51,0.00,,,0.00,Wunderground v.1.15,2013-03-28 16:00:00,
2013-03-28 12:01:00,70.9,52.9,30.24,NNW,331,0.0,6.0,53,0.00,,,0.00,Wunderground v.1.15,2013-03-28 16:01:00,
2013-03-28 12:02:00,71.0,53.0,30.24,NW,320,0.0,6.0,53,0.00,,,0.00,Wunderground v.1.15,2013-03-28 16:02:00,
2013-03-28 12:05:00,71.1,51.0,30.23,North,360,0.0,8.0,49,0.00,,,0.00,Wunderground v.1.15,2013-03-28 16:05:00,
2013-03-28 12:07:00,71.1,53.6,30.23,North,360,0.0,8.0,54,0.00,,,0.00,Wunderground v.1.15,2013-03-28 16:07:00,
2013-03-28 12:10:00,71.5,53.5,30.23,NE,50,0.0,1.0,53,0.00,,,0.00,Wunderground v.1.15,2013-03-28 16:10:00,
2013-03-28 12:12:00,71.3,51.7,30.24,NE,44,0.0,1.0,50,0.00,,,0.00,Wunderground v.1.15,2013-03-28 16:12:00,
2013-03-28 12:13:00,71.1,50.4,30.23,NE,38,1.0,4.0,48,0.00,,,0.00,Wunderground v.1.15,2013-03-28 16:13:00,
2013-03-28 12:16:00,70.4,50.3,30.23,NNW,337,0.0,5.0,49,0.00,,,0.00,Wunderground v.1.15,2013-03-28 16:16:00,
2013-03-28 12:17:00,70.0,49.4,30.23,NE,54,0.0,5.0,48,0.00,,,0.00,Wunderground v.1.15,2013-03-28 16:17:00,
2013-03-28 12:18:00,69.6,50.1,30.23,NE,38,0.0,5.0,50,0.00,,,0.00,Wunderground v.1.15,2013-03-28 16:18:00,
2013-03-28 12:21:00,70.7,50.6,30.23,NW,306,0.0,5.0,49,0.00,,,0.00,Wunderground v.1.15,2013-03-28 16:21:00,
2013-03-28 12:22:00,71.0,52.0,30.23,NW,306,0.0,5.0,51,0.00,,,0.00,Wunderground v.1.15,2013-03-28 16:22:00,
2013-03-28 12:23:00,71.0,52.0,30.23,NW,306,0.0,5.0,51,0.00,,,0.00,Wunderground v.1.15,2013-03-28 16:23:00,
2013-03-28 12:27:00,71.6,51.4,30.23,NE,49,0.0,7.0,49,0.00,,,0.00,Wunderground v.1.15,2013-03-28 16:27:00,
2013-03-28 12:28:00,71.1,47.5,30.23,NE,46,0.0,7.0,43,0.00,,,0.00,Wunderground v.1.15,2013-03-28 16:28:00,
2013-03-28 12:29:00,71.0,50.3,30.23,NE,43,0.0,7.0,48,0.00,,,0.00,Wunderground v.1.15,2013-03-28 16:29:00,
2013-03-28 12:32:00,71.2,50.5,30.23,NW,325,0.0,4.0,48,0.00,,,0.00,Wunderground v.1.15,2013-03-28 16:32:00,
2013-03-28 12:33:00,71.4,50.7,30.23,NE,34,1.0,4.0,48,0.00,,,0.00,Wunderground v.1.15,2013-03-28 16:33:00,
2013-03-28 12:34:00,71.3,48.9,30.23,NE,34,0.0,4.0,45,0.00,,,0.00,Wunderground v.1.15,2013-03-28 16:34:00,
2013-03-28 12:37:00,70.3,50.2,30.22,NE,39,3.0,7.0,49,0.00,,,0.00,Wunderground v.1.15,2013-03-28 16:37:00,
2013-03-28 12:39:00,70.2,48.4,30.23,NE,39,0.0,7.0,46,0.00,,,0.00,Wunderground v.1.15,2013-03-28 16:39:00,
2013-03-28 12:40:00,69.9,47.0,30.22,NE,54,0.0,1.0,44,0.00,,,0.00,Wunderground v.1.15,2013-03-28 16:40:00,
2013-03-28 12:43:00,70.1,50.0,30.22,North,360,0.0,6.0,49,0.00,,,0.00,Wunderground v.1.15,2013-03-28 16:43:00,
2013-03-28 12:44:00,70.4,50.3,30.22,North,360,0.0,6.0,49,0.00,,,0.00,Wunderground v.1.15,2013-03-28 16:44:00,
2013-03-28 12:45:00,70.8,51.8,30.22,NNW,346,1.0,6.0,51,0.00,,,0.00,Wunderground v.1.15,2013-03-28 16:45:00,
2013-03-28 12:48:00,71.5,48.4,30.22,NNW,346,0.0,6.0,44,0.00,,,0.00,Wunderground v.1.15,2013-03-28 16:48:00,
2013-03-28 12:49:00,71.2,48.2,30.22,NNW,346,0.0,6.0,44,0.00,,,0.00,Wunderground v.1.15,2013-03-28 16:49:00,
2013-03-28 12:50:00,70.8,45.9,30.22,NNW,346,0.0,0.0,41,0.00,,,0.00,Wunderground v.1.15,2013-03-28 16:50:00,
2013-03-28 12:53:00,70.4,48.0,30.22,NNE,19,0.0,5.0,45,0.00,,,0.00,Wunderground v.1.15,2013-03-28 16:53:00,
2013-03-28 12:54:00,70.3,46.1,30.22,ENE,67,0.0,5.0,42,0.00,,,0.00,Wunderground v.1.15,2013-03-28 16:54:00,
2013-03-28 12:55:00,69.9,45.8,30.22,East,79,2.0,5.0,42,0.00,,,0.00,Wunderground v.1.15,2013-03-28 16:55:00,
2013-03-28 12:56:00,69.3,45.2,30.22,East,80,0.0,5.0,42,0.00,,,0.00,Wunderground v.1.15,2013-03-28 16:56:00,
2013-03-28 12:58:00,68.6,45.2,30.21,North,355,9.0,14.0,43,0.00,,,0.00,Wunderground v.1.15,2013-03-28 16:58:00,
2013-03-28 12:59:00,68.9,48.4,30.22,NNW,329,0.0,14.0,48,0.00,,,0.00,Wunderground v.1.15,2013-03-28 16:59:00,
2013-03-28 13:00:00,69.4,49.9,30.22,NNW,340,0.0,8.0,50,0.00,,,0.00,Wunderground v.1.15,2013-03-28 17:00:00,
2013-03-28 13:02:00,70.2,49.6,30.22,NW,323,2.0,8.0,48,0.00,,,0.00,Wunderground v.1.15,2013-03-28 17:02:00,
2013-03-28 13:04:00,71.4,51.2,30.22,NW,315,0.0,8.0,49,0.00,,,0.00,Wunderground v.1.15,2013-03-28 17:04:00,
2013-03-28 13:06:00,72.2,48.5,30.21,NNW,345,0.0,8.0,43,0.00,,,0.00,Wunderground v.1.15,2013-03-28 17:06:00,
2013-03-28 13:07:00,72.2,48.5,30.21,NNW,345,0.0,8.0,43,0.00,,,0.00,Wunderground v.1.15,2013-03-28 17:07:00,
2013-03-28 13:09:00,72.4,49.9,30.21,NNW,348,0.0,8.0,45,0.00,,,0.00,Wunderground v.1.15,2013-03-28 17:09:00,
2013-03-28 13:10:00,72.2,46.5,30.21,NNW,329,4.0,4.0,40,0.00,,,0.00,Wunderground v.1.15,2013-03-28 17:10:00,
2013-03-28 13:12:00,72.2,49.1,30.21,NW,320,0.0,5.0,44,0.00,,,0.00,Wunderground v.1.15,2013-03-28 17:12:00,
2013-03-28 13:14:00,72.4,49.3,30.21,North,5,0.0,5.0,44,0.00,,,0.00,Wunderground v.1.15,2013-03-28 17:14:00,
2013-03-28 13:15:00,72.5,49.3,30.21,NNW,338,1.0,5.0,44,0.00,,,0.00,Wunderground v.1.15,2013-03-28 17:15:00,
2013-03-28 13:17:00,72.7,48.9,30.21,ENE,69,1.0,5.0,43,0.00,,,0.00,Wunderground v.1.15,2013-03-28 17:17:00,
2013-03-28 13:19:00,72.2,49.1,30.21,ENE,65,0.0,5.0,44,0.00,,,0.00,Wunderground v.1.15,2013-03-28 17:19:00,
2013-03-28 13:20:00,72.2,49.7,30.21,NW,325,4.0,4.0,45,0.00,,,0.00,Wunderground v.1.15,2013-03-28 17:20:00,
2013-03-28 13:22:00,72.6,47.5,30.21,NNW,331,0.0,7.0,41,0.00,,,0.00,Wunderground v.1.15,2013-03-28 17:22:00,
2013-03-28 13:24:00,72.6,48.2,30.21,NNW,334,2.0,7.0,42,0.00,,,0.00,Wunderground v.1.15,2013-03-28 17:24:00,
2013-03-28 13:25:00,72.7,48.9,30.20,NNW,333,0.0,7.0,43,0.00,,,0.00,Wunderground v.1.15,2013-03-28 17:25:00,
2013-03-28 13:27:00,73.2,48.7,30.20,NNW,327,3.0,7.0,42,0.00,,,0.00,Wunderground v.1.15,2013-03-28 17:27:00,
2013-03-28 13:28:00,73.3,48.8,30.20,NNW,328,0.0,7.0,42,0.00,,,0.00,Wunderground v.1.15,2013-03-28 17:28:00,
2013-03-28 13:29:00,73.6,49.1,30.20,NW,317,0.0,7.0,42,0.00,,,0.00,Wunderground v.1.15,2013-03-28 17:29:00,
2013-03-28 13:30:00,73.7,47.9,30.20,NW,306,0.0,1.0,40,0.00,,,0.00,Wunderground v.1.15,2013-03-28 17:30:00,
2013-03-28 13:33:00,73.4,48.3,30.20,WNW,296,2.0,2.0,41,0.00,,,0.00,Wunderground v.1.15,2013-03-28 17:33:00,
2013-03-28 13:34:00,73.5,47.7,30.20,NW,326,1.0,5.0,40,0.00,,,0.00,Wunderground v.1.15,2013-03-28 17:34:00,
2013-03-28 13:36:00,73.5,47.7,30.20,North,5,6.0,6.0,40,0.00,,,0.00,Wunderground v.1.15,2013-03-28 17:36:00,
2013-03-28 13:38:00,73.7,48.5,30.20,NNW,327,0.0,6.0,41,0.00,,,0.00,Wunderground v.1.15,2013-03-28 17:38:00,
2013-03-28 13:39:00,73.9,47.4,30.19,NNW,330,3.0,6.0,39,0.00,,,0.00,Wunderground v.1.15,2013-03-28 17:39:00,
2013-03-28 13:41:00,74.0,48.1,30.19,NNW,342,5.0,7.0,40,0.00,,,0.00,Wunderground v.1.15,2013-03-28 17:41:00,
2013-03-28 13:43:00,74.0,50.1,30.19,NNW,346,0.0,7.0,43,0.00,,,0.00,Wunderground v.1.15,2013-03-28 17:43:00,
2013-03-28 13:45:00,74.1,50.2,30.19,NNW,338,2.0,7.0,43,0.00,,,0.00,Wunderground v.1.15,2013-03-28 17:45:00,
2013-03-28 13:47:00,74.2,48.3,30.19,NNW,329,4.0,7.0,40,0.00,,,0.00,Wunderground v.1.15,2013-03-28 17:47:00,
2013-03-28 13:48:00,74.2,49.0,30.19,NW,322,0.0,7.0,41,0.00,,,0.00,Wunderground v.1.15,2013-03-28 17:48:00,
2013-03-28 13:49:00,74.2,47.0,30.19,NW,316,5.0,7.0,38,0.00,,,0.00,Wunderground v.1.15,2013-03-28 17:49:00,
2013-03-28 13:50:00,74.0,46.8,30.19,North,360,0.0,2.0,38,0.00,,,0.00,Wunderground v.1.15,2013-03-28 17:50:00,
2013-03-28 13:52:00,73.9,48.1,30.19,NNW,333,1.0,3.0,40,0.00,,,0.00,Wunderground v.1.15,2013-03-28 17:52:00,
2013-03-28 13:53:00,74.2,49.0,30.19,North,355,6.0,8.0,41,0.00,,,0.00,Wunderground v.1.15,2013-03-28 17:53:00,
2013-03-28 13:54:00,74.2,45.5,30.19,NNE,22,1.0,8.0,36,0.00,,,0.00,Wunderground v.1.15,2013-03-28 17:54:00,
2013-03-28 13:55:00,74.0,47.5,30.19,NNE,25,0.0,8.0,39,0.00,,,0.00,Wunderground v.1.15,2013-03-28 17:55:00,
2013-03-28 13:57:00,73.5,47.0,30.19,NE,46,0.0,8.0,39,0.00,,,0.00,Wunderground v.1.15,2013-03-28 17:57:00,
2013-03-28 13:59:00,72.9,44.4,30.18,East,79,0.0,8.0,36,0.00,,,0.00,Wunderground v.1.15,2013-03-28 17:59:00,
2013-03-28 14:00:00,72.1,44.4,30.18,East,79,0.0,2.0,37,0.00,,,0.00,Wunderground v.1.15,2013-03-28 18:00:00,
2013-03-28 14:02:00,71.1,44.2,30.18,East,80,0.0,4.0,38,0.00,,,0.00,Wunderground v.1.15,2013-03-28 18:02:00,
2013-03-28 14:04:00,71.2,47.6,30.18,NNW,333,1.0,6.0,43,0.00,,,0.00,Wunderground v.1.15,2013-03-28 18:04:00,
2013-03-28 14:05:00,72.0,45.7,30.18,North,360,1.0,6.0,39,0.00,,,0.00,Wunderground v.1.15,2013-03-28 18:05:00,
2013-03-28 14:07:00,72.5,45.4,30.18,WNW,302,0.0,6.0,38,0.00,,,0.00,Wunderground v.1.15,2013-03-28 18:07:00,
2013-03-28 14:09:00,73.1,43.8,30.18,NW,318,0.0,6.0,35,0.00,,,0.00,Wunderground v.1.15,2013-03-28 18:09:00,
2013-03-28 14:10:00,73.4,45.5,30.18,North,9,0.0,1.0,37,0.00,,,0.00,Wunderground v.1.15,2013-03-28 18:10:00,
2013-03-28 14:12:00,72.7,42.7,30.18,North,5,0.0,4.0,34,0.00,,,0.00,Wunderground v.1.15,2013-03-28 18:12:00,
2013-03-28 14:14:00,72.0,46.3,30.18,NNW,330,1.0,6.0,40,0.00,,,0.00,Wunderground v.1.15,2013-03-28 18:14:00,
2013-03-28 14:15:00,72.2,45.9,30.18,NNW,329,0.0,6.0,39,0.00,,,0.00,Wunderground v.1.15,2013-03-28 18:15:00,
2013-03-28 14:16:00,72.9,47.2,30.18,NNW,333,0.0,6.0,40,0.00,,,0.00,Wunderground v.1.15,2013-03-28 18:16:00,
2013-03-28 14:17:00,73.4,44.8,30.17,NW,324,1.0,6.0,36,0.00,,,0.00,Wunderground v.1.15,2013-03-28 18:17:00,
2013-03-28 14:19:00,73.7,42.8,30.17,WNW,282,1.0,6.0,33,0.00,,,0.00,Wunderground v.1.15,2013-03-28 18:19:00,
2013-03-28 14:20:00,73.9,47.4,30.17,NW,312,0.0,4.0,39,0.00,,,0.00,Wunderground v.1.15,2013-03-28 18:20:00,
2013-03-28 14:21:00,74.1,46.9,30.17,NW,312,0.0,4.0,38,0.00,,,0.00,Wunderground v.1.15,2013-03-28 18:21:00,
2013-03-28 14:23:00,74.3,45.6,30.17,NW,311,0.0,6.0,36,0.00,,,0.00,Wunderground v.1.15,2013-03-28 18:23:00,
2013-03-28 14:25:00,74.4,45.7,30.17,NW,315,0.0,6.0,36,0.00,,,0.00,Wunderground v.1.15,2013-03-28 18:25:00,
2013-03-28 14:27:00,74.6,45.9,30.17,NNE,20,2.0,7.0,36,0.00,,,0.00,Wunderground v.1.15,2013-03-28 18:27:00,
2013-03-28 14:28:00,74.4,45.0,30.17,NNE,17,0.0,7.0,35,0.00,,,0.00,Wunderground v.1.15,2013-03-28 18:28:00,
2013-03-28 14:30:00,74.1,46.2,30.17,NW,318,1.0,2.0,37,0.00,,,0.00,Wunderground v.1.15,2013-03-28 18:30:00,
2013-03-28 14:31:00,74.4,46.4,30.17,NW,315,0.0,6.0,37,0.00,,,0.00,Wunderground v.1.15,2013-03-28 18:31:00,
2013-03-28 14:32:00,74.4,45.7,30.17,NNW,328,4.0,6.0,36,0.00,,,0.00,Wunderground v.1.15,2013-03-28 18:32:00,
2013-03-28 14:34:00,74.7,46.0,30.17,NNW,344,4.0,6.0,36,0.00,,,0.00,Wunderground v.1.15,2013-03-28 18:34:00,
2013-03-28 14:35:00,74.9,46.1,30.17,NW,321,6.0,7.0,36,0.00,,,0.00,Wunderground v.1.15,2013-03-28 18:35:00,
2013-03-28 14:37:00,74.9,43.0,30.17,NNW,341,0.0,7.0,32,0.00,,,0.00,Wunderground v.1.15,2013-03-28 18:37:00,
2013-03-28 14:39:00,74.9,45.4,30.17,NW,326,4.0,7.0,35,0.00,,,0.00,Wunderground v.1.15,2013-03-28 18:39:00,
2013-03-28 14:40:00,75.0,44.7,30.17,NW,319,0.0,1.0,34,0.00,,,0.00,Wunderground v.1.15,2013-03-28 18:40:00,
2013-03-28 14:42:00,74.8,42.1,30.17,NNW,327,0.0,5.0,31,0.00,,,0.00,Wunderground v.1.15,2013-03-28 18:42:00,
2013-03-28 14:44:00,74.8,43.0,30.17,NNW,328,0.0,5.0,32,0.00,,,0.00,Wunderground v.1.15,2013-03-28 18:44:00,
2013-03-28 14:45:00,74.8,43.0,30.17,NW,306,0.0,5.0,32,0.00,,,0.00,Wunderground v.1.15,2013-03-28 18:45:00,
2013-03-28 14:47:00,75.1,42.4,30.17,NW,323,5.0,7.0,31,0.00,,,0.00,Wunderground v.1.15,2013-03-28 18:47:00,
2013-03-28 14:48:00,75.1,42.4,30.17,NNW,332,6.0,7.0,31,0.00,,,0.00,Wunderground v.1.15,2013-03-28 18:48:00,
2013-03-28 14:49:00,75.2,41.6,30.17,NNW,335,2.0,7.0,30,0.00,,,0.00,Wunderground v.1.15,2013-03-28 18:49:00,
2013-03-28 14:50:00,75.1,40.7,30.17,NNW,334,0.0,2.0,29,0.00,,,0.00,Wunderground v.1.15,2013-03-28 18:50:00,
2013-03-28 14:53:00,74.4,38.2,30.16,NW,326,1.0,4.0,27,0.00,,,0.00,Wunderground v.1.15,2013-03-28 18:53:00,
2013-03-28 14:54:00,73.8,44.4,30.16,NNE,33,0.0,4.0,35,0.00,,,0.00,Wunderground v.1.15,2013-03-28 18:54:00,
2013-03-28 14:56:00,74.0,45.3,30.17,North,355,1.0,4.0,36,0.00,,,0.00,Wunderground v.1.15,2013-03-28 18:56:00,
2013-03-28 14:58:00,74.3,43.3,30.16,NNW,339,3.0,4.0,33,0.00,,,0.00,Wunderground v.1.15,2013-03-28 18:58:00,
2013-03-28 15:00:00,74.5,43.5,30.16,NNW,338,0.0,1.0,33,0.00,,,0.00,Wunderground v.1.15,2013-03-28 19:00:00,
2013-03-28 15:02:00,73.5,41.8,30.16,North,360,0.0,2.0,32,0.00,,,0.00,Wunderground v.1.15,2013-03-28 19:02:00,
2013-03-28 15:03:00,72.6,41.8,30.16,North,360,0.0,2.0,33,0.00,,,0.00,Wunderground v.1.15,2013-03-28 19:03:00,
2013-03-28 15:06:00,71.8,44.1,30.16,North,350,2.0,3.0,37,0.00,,,0.00,Wunderground v.1.15,2013-03-28 19:06:00,
2013-03-28 15:07:00,72.6,40.2,30.16,NNW,338,2.0,3.0,31,0.00,,,0.00,Wunderground v.1.15,2013-03-28 19:07:00,
2013-03-28 15:08:00,73.1,42.3,30.16,NNW,331,5.0,6.0,33,0.00,,,0.00,Wunderground v.1.15,2013-03-28 19:08:00,
2013-03-28 15:09:00,73.2,42.4,30.16,NNW,333,1.0,6.0,33,0.00,,,0.00,Wunderground v.1.15,2013-03-28 19:09:00,
2013-03-28 15:11:00,73.9,45.3,30.16,NNW,333,0.0,5.0,36,0.00,,,0.00,Wunderground v.1.15,2013-03-28 19:11:00,
2013-03-28 15:12:00,74.1,47.6,30.16,NNW,339,0.0,5.0,39,0.00,,,0.00,Wunderground v.1.15,2013-03-28 19:12:00,
2013-03-28 15:13:00,74.3,44.1,30.16,NNW,334,0.0,5.0,34,0.00,,,0.00,Wunderground v.1.15,2013-03-28 19:13:00,
2013-03-28 15:14:00,74.4,44.2,30.16,NNW,332,0.0,5.0,34,0.00,,,0.00,Wunderground v.1.15,2013-03-28 19:14:00,
2013-03-28 15:16:00,74.3,46.3,30.15,NNW,338,0.0,5.0,37,0.00,,,0.00,Wunderground v.1.15,2013-03-28 19:16:00,
2013-03-28 15:18:00,74.7,46.7,30.15,North,355,4.0,7.0,37,0.00,,,0.00,Wunderground v.1.15,2013-03-28 19:18:00,
2013-03-28 15:19:00,74.8,46.1,30.15,NW,320,0.0,7.0,36,0.00,,,0.00,Wunderground v.1.15,2013-03-28 19:19:00,
2013-03-28 15:22:00,75.1,45.6,30.15,NNW,341,3.0,3.0,35,0.00,,,0.00,Wunderground v.1.15,2013-03-28 19:22:00,
2013-03-28 15:23:00,75.1,45.6,30.15,NW,322,5.0,5.0,35,0.00,,,0.00,Wunderground v.1.15,2013-03-28 19:23:00,
2013-03-28 15:24:00,75.1,46.3,30.15,NNW,327,0.0,5.0,36,0.00,,,0.00,Wunderground v.1.15,2013-03-28 19:24:00,
2013-03-28 15:27:00,75.5,44.4,30.15,NNW,328,7.0,10.0,33,0.00,,,0.00,Wunderground v.1.15,2013-03-28 19:27:00,
2013-03-28 15:28:00,75.5,45.2,30.15,North,9,7.0,10.0,34,0.00,,,0.00,Wunderground v.1.15,2013-03-28 19:28:00,
2013-03-28 15:29:00,75.5,46.7,30.15,North,360,0.0,10.0,36,0.00,,,0.00,Wunderground v.1.15,2013-03-28 19:29:00,
2013-03-28 15:32:00,75.4,45.1,30.15,NNW,327,5.0,5.0,34,0.00,,,0.00,Wunderground v.1.15,2013-03-28 19:32:00,
2013-03-28 15:33:00,75.4,44.3,30.15,NNW,338,0.0,5.0,33,0.00,,,0.00,Wunderground v.1.15,2013-03-28 19:33:00,
2013-03-28 15:34:00,75.2,43.3,30.15,North,350,2.0,5.0,32,0.00,,,0.00,Wunderground v.1.15,2013-03-28 19:34:00,
2013-03-28 15:37:00,74.8,42.1,30.15,NW,315,0.0,5.0,31,0.00,,,0.00,Wunderground v.1.15,2013-03-28 19:37:00,
2013-03-28 15:38:00,74.6,42.0,30.15,NW,320,4.0,5.0,31,0.00,,,0.00,Wunderground v.1.15,2013-03-28 19:38:00,
2013-03-28 15:39:00,74.6,42.8,30.15,NW,320,0.0,5.0,32,0.00,,,0.00,Wunderground v.1.15,2013-03-28 19:39:00,
2013-03-28 15:40:00,74.7,42.9,30.15,NW,320,0.0,5.0,32,0.00,,,0.00,Wunderground v.1.15,2013-03-28 19:40:00,
2013-03-28 15:42:00,74.8,44.5,30.14,NW,319,0.0,3.0,34,0.00,,,0.00,Wunderground v.1.15,2013-03-28 19:42:00,
2013-03-28 15:44:00,74.8,43.8,30.14,North,350,5.0,6.0,33,0.00,,,0.00,Wunderground v.1.15,2013-03-28 19:44:00,
2013-03-28 15:45:00,74.9,44.6,30.14,NNW,343,0.0,6.0,34,0.00,,,0.00,Wunderground v.1.15,2013-03-28 19:45:00,
2013-03-28 15:47:00,74.6,45.1,30.14,NNW,333,1.0,6.0,35,0.00,,,0.00,Wunderground v.1.15,2013-03-28 19:47:00,
2013-03-28 15:49:00,74.7,43.7,30.14,NNW,336,1.0,6.0,33,0.00,,,0.00,Wunderground v.1.15,2013-03-28 19:49:00,
2013-03-28 15:50:00,74.7,43.7,30.14,NNW,336,0.0,1.0,33,0.00,,,0.00,Wunderground v.1.15,2013-03-28 19:50:00,
2013-03-28 15:53:00,75.2,43.3,30.14,NW,324,0.0,4.0,32,0.00,,,0.00,Wunderground v.1.15,2013-03-28 19:53:00,
2013-03-28 15:54:00,74.8,42.1,30.14,North,349,6.0,6.0,31,0.00,,,0.00,Wunderground v.1.15,2013-03-28 19:54:00,
2013-03-28 15:55:00,74.7,43.7,30.14,WNW,298,6.0,6.0,33,0.00,,,0.00,Wunderground v.1.15,2013-03-28 19:55:00,
2013-03-28 15:58:00,74.7,42.0,30.14,NNE,18,0.0,9.0,31,0.00,,,0.00,Wunderground v.1.15,2013-03-28 19:58:00,
2013-03-28 15:59:00,74.5,39.2,30.13,NNE,18,0.0,9.0,28,0.00,,,0.00,Wunderground v.1.15,2013-03-28 19:59:00,
2013-03-28 16:00:00,74.3,40.8,30.13,North,360,1.0,2.0,30,0.00,,,0.00,Wunderground v.1.15,2013-03-28 20:00:00,
2013-03-28 16:02:00,74.4,44.2,30.14,North,350,6.0,8.0,34,0.00,,,0.00,Wunderground v.1.15,2013-03-28 20:02:00,
2013-03-28 16:05:00,74.6,45.1,30.13,NNW,329,0.0,8.0,35,0.00,,,0.00,Wunderground v.1.15,2013-03-28 20:05:00,
2013-03-28 16:06:00,74.7,45.2,30.13,NNE,17,5.0,8.0,35,0.00,,,0.00,Wunderground v.1.15,2013-03-28 20:06:00,
2013-03-28 16:07:00,74.7,42.9,30.13,North,360,2.0,8.0,32,0.00,,,0.00,Wunderground v.1.15,2013-03-28 20:07:00,
2013-03-28 16:10:00,74.0,43.8,30.13,North,11,0.0,2.0,34,0.00,,,0.00,Wunderground v.1.15,2013-03-28 20:10:00,
2013-03-28 16:11:00,73.8,44.4,30.13,North,11,1.0,2.0,35,0.00,,,0.00,Wunderground v.1.15,2013-03-28 20:11:00,
2013-03-28 16:14:00,74.0,44.6,30.13,North,355,0.0,7.0,35,0.00,,,0.00,Wunderground v.1.15,2013-03-28 20:14:00,
2013-03-28 16:15:00,74.1,46.2,30.13,NNW,345,5.0,7.0,37,0.00,,,0.00,Wunderground v.1.15,2013-03-28 20:15:00,
2013-03-28 16:16:00,74.2,44.0,30.13,NNW,346,0.0,7.0,34,0.00,,,0.00,Wunderground v.1.15,2013-03-28 20:16:00,
2013-03-28 16:20:00,74.0,43.1,30.13,North,350,0.0,2.0,33,0.00,,,0.00,Wunderground v.1.15,2013-03-28 20:20:00,
2013-03-28 16:21:00,74.0,43.8,30.13,North,350,0.0,2.0,34,0.00,,,0.00,Wunderground v.1.15,2013-03-28 20:21:00,
2013-03-28 16:25:00,73.8,43.7,30.13,NNE,25,0.0,2.0,34,0.00,,,0.00,Wunderground v.1.15,2013-03-28 20:25:00,
2013-03-28 16:26:00,73.7,43.6,30.13,NNE,25,0.0,2.0,34,0.00,,,0.00,Wunderground v.1.15,2013-03-28 20:26:00,
2013-03-28 16:30:00,74.1,44.7,30.13,WNW,292,4.0,5.0,35,0.00,,,0.00,Wunderground v.1.15,2013-03-28 20:30:00,
2013-03-28 16:31:00,74.1,44.7,30.13,NW,319,2.0,5.0,35,0.00,,,0.00,Wunderground v.1.15,2013-03-28 20:31:00,
2013-03-28 16:32:00,74.3,44.1,30.13,NNW,345,6.0,6.0,34,0.00,,,0.00,Wunderground v.1.15,2013-03-28 20:32:00,
2013-03-28 16:33:00,74.4,43.4,30.13,NW,323,0.0,7.0,33,0.00,,,0.00,Wunderground v.1.15,2013-03-28 20:33:00,
2013-03-28 16:36:00,74.6,42.8,30.13,NNE,31,0.0,7.0,32,0.00,,,0.00,Wunderground v.1.15,2013-03-28 20:36:00,
2013-03-28 16:37:00,74.6,44.4,30.13,North,5,0.0,7.0,34,0.00,,,0.00,Wunderground v.1.15,2013-03-28 20:37:00,
2013-03-28 16:38:00,74.6,42.0,30.13,NNE,12,1.0,7.0,31,0.00,,,0.00,Wunderground v.1.15,2013-03-28 20:38:00,
2013-03-28 16:41:00,74.3,42.5,30.13,NNW,336,2.0,4.0,32,0.00,,,0.00,Wunderground v.1.15,2013-03-28 20:41:00,
2013-03-28 16:43:00,74.4,41.8,30.13,North,355,0.0,4.0,31,0.00,,,0.00,Wunderground v.1.15,2013-03-28 20:43:00,
2013-03-28 16:44:00,74.3,42.5,30.13,North,360,0.0,4.0,32,0.00,,,0.00,Wunderground v.1.15,2013-03-28 20:44:00,
2013-03-28 16:46:00,74.2,42.4,30.13,North,5,1.0,4.0,32,0.00,,,0.00,Wunderground v.1.15,2013-03-28 20:46:00,
2013-03-28 16:47:00,74.0,38.8,30.13,North,5,0.0,4.0,28,0.00,,,0.00,Wunderground v.1.15,2013-03-28 20:47:00,
2013-03-28 16:48:00,73.8,41.3,30.13,NNE,22,0.0,6.0,31,0.00,,,0.00,Wunderground v.1.15,2013-03-28 20:48:00,
2013-03-28 16:49:00,73.9,40.5,30.13,NNE,31,0.0,6.0,30,0.00,,,0.00,Wunderground v.1.15,2013-03-28 20:49:00,
2013-03-28 16:52:00,74.0,44.6,30.13,NNE,26,2.0,5.0,35,0.00,,,0.00,Wunderground v.1.15,2013-03-28 20:52:00,
2013-03-28 16:53:00,73.8,41.3,30.13,ESE,111,1.0,5.0,31,0.00,,,0.00,Wunderground v.1.15,2013-03-28 20:53:00,
2013-03-28 16:54:00,73.6,41.1,30.13,ESE,115,1.0,5.0,31,0.00,,,0.00,Wunderground v.1.15,2013-03-28 20:54:00,
2013-03-28 16:57:00,72.5,40.1,30.13,NE,44,0.0,5.0,31,0.00,,,0.00,Wunderground v.1.15,2013-03-28 20:57:00,
2013-03-28 16:58:00,72.5,43.3,30.13,NNW,348,1.0,5.0,35,0.00,,,0.00,Wunderground v.1.15,2013-03-28 20:58:00,
2013-03-28 16:59:00,72.7,43.5,30.13,NNW,348,0.0,5.0,35,0.00,,,0.00,Wunderground v.1.15,2013-03-28 20:59:00,
2013-03-28 17:00:00,73.2,43.1,30.13,North,355,7.0,7.0,34,0.00,,,0.00,Wunderground v.1.15,2013-03-28 21:00:00,
2013-03-28 17:02:00,73.5,41.8,30.13,NE,46,0.0,7.0,32,0.00,,,0.00,Wunderground v.1.15,2013-03-28 21:02:00,
2013-03-28 17:03:00,73.6,44.2,30.13,North,360,6.0,8.0,35,0.00,,,0.00,Wunderground v.1.15,2013-03-28 21:03:00,
2013-03-28 17:05:00,73.7,42.8,30.12,NNW,348,0.0,8.0,33,0.00,,,0.00,Wunderground v.1.15,2013-03-28 21:05:00,
2013-03-28 17:07:00,73.8,41.3,30.12,North,355,1.0,8.0,31,0.00,,,0.00,Wunderground v.1.15,2013-03-28 21:07:00,
2013-03-28 17:08:00,73.8,42.9,30.12,NNW,340,0.0,8.0,33,0.00,,,0.00,Wunderground v.1.15,2013-03-28 21:08:00,
2013-03-28 17:10:00,73.7,44.3,30.13,North,355,0.0,2.0,35,0.00,,,0.00,Wunderground v.1.15,2013-03-28 21:10:00,
2013-03-28 17:11:00,73.7,42.8,30.12,North,355,0.0,2.0,33,0.00,,,0.00,Wunderground v.1.15,2013-03-28 21:11:00,
2013-03-28 17:13:00,73.5,42.6,30.12,NNW,329,4.0,5.0,33,0.00,,,0.00,Wunderground v.1.15,2013-03-28 21:13:00,
2013-03-28 17:14:00,73.5,43.4,30.12,NNE,32,0.0,5.0,34,0.00,,,0.00,Wunderground v.1.15,2013-03-28 21:14:00,
2013-03-28 17:15:00,73.3,40.8,30.12,NE,34,0.0,5.0,31,0.00,,,0.00,Wunderground v.1.15,2013-03-28 21:15:00,
2013-03-28 17:17:00,73.1,42.3,30.12,North,5,2.0,5.0,33,0.00,,,0.00,Wunderground v.1.15,2013-03-28 21:17:00,
2013-03-28 17:18:00,73.1,41.5,30.12,NNW,346,2.0,5.0,32,0.00,,,0.00,Wunderground v.1.15,2013-03-28 21:18:00,
2013-03-28 17:19:00,73.0,47.2,30.12,East,94,5.0,5.0,40,0.00,,,0.00,Wunderground v.1.15,2013-03-28 21:19:00,
2013-03-28 17:20:00,72.6,51.2,30.12,ENE,72,0.0,7.0,47,0.00,,,0.00,Wunderground v.1.15,2013-03-28 21:20:00,
2013-03-28 17:22:00,72.4,49.9,30.12,NNE,19,0.0,7.0,45,0.00,,,0.00,Wunderground v.1.15,2013-03-28 21:22:00,
2013-03-28 17:23:00,72.4,49.9,30.12,NNE,25,5.0,7.0,45,0.00,,,0.00,Wunderground v.1.15,2013-03-28 21:23:00,
2013-03-28 17:24:00,72.3,48.5,30.12,East,86,2.0,7.0,43,0.00,,,0.00,Wunderground v.1.15,2013-03-28 21:24:00,
2013-03-28 17:27:00,71.9,48.8,30.12,ENE,70,0.0,7.0,44,0.00,,,0.00,Wunderground v.1.15,2013-03-28 21:27:00,
2013-03-28 17:28:00,71.7,49.8,30.12,East,99,4.0,7.0,46,0.00,,,0.00,Wunderground v.1.15,2013-03-28 21:28:00,
2013-03-28 17:29:00,71.5,50.2,30.12,East,99,4.0,7.0,47,0.00,,,0.00,Wunderground v.1.15,2013-03-28 21:29:00,
2013-03-28 17:32:00,71.2,49.4,30.13,ENE,64,0.0,4.0,46,0.00,,,0.00,Wunderground v.1.15,2013-03-28 21:32:00,
2013-03-28 17:33:00,71.2,49.4,30.13,ENE,67,0.0,4.0,46,0.00,,,0.00,Wunderground v.1.15,2013-03-28 21:33:00,
2013-03-28 17:34:00,70.9,49.7,30.13,East,92,2.0,6.0,47,0.00,,,0.00,Wunderground v.1.15,2013-03-28 21:34:00,
2013-03-28 17:37:00,70.7,50.6,30.13,East,99,5.0,8.0,49,0.00,,,0.00,Wunderground v.1.15,2013-03-28 21:37:00,
2013-03-28 17:38:00,70.8,50.7,30.13,East,83,1.0,8.0,49,0.00,,,0.00,Wunderground v.1.15,2013-03-28 21:38:00,
2013-03-28 17:39:00,70.7,49.5,30.12,East,83,0.0,8.0,47,0.00,,,0.00,Wunderground v.1.15,2013-03-28 21:39:00,
2013-03-28 17:42:00,70.7,50.6,30.13,ENE,78,0.0,7.0,49,0.00,,,0.00,Wunderground v.1.15,2013-03-28 21:42:00,
2013-03-28 17:44:00,70.7,51.1,30.13,East,93,0.0,7.0,50,0.00,,,0.00,Wunderground v.1.15,2013-03-28 21:44:00,
2013-03-28 17:48:00,70.5,51.5,30.13,ENE,63,0.0,7.0,51,0.00,,,0.00,Wunderground v.1.15,2013-03-28 21:48:00,
2013-03-28 17:49:00,70.4,50.9,30.13,NE,34,8.0,8.0,50,0.00,,,0.00,Wunderground v.1.15,2013-03-28 21:49:00,
2013-03-28 17:54:00,70.3,51.3,30.13,East,84,5.0,5.0,51,0.00,,,0.00,Wunderground v.1.15,2013-03-28 21:54:00,
2013-03-28 17:55:00,70.3,51.8,30.13,East,94,5.0,6.0,52,0.00,,,0.00,Wunderground v.1.15,2013-03-28 21:55:00,
2013-03-28 17:59:00,70.3,51.8,30.13,East,97,0.0,7.0,52,0.00,,,0.00,Wunderground v.1.15,2013-03-28 21:59:00,
2013-03-28 18:00:00,70.3,51.8,30.13,East,97,0.0,2.0,52,0.00,,,0.00,Wunderground v.1.15,2013-03-28 22:00:00,
2013-03-28 18:01:00,70.2,51.7,30.13,East,97,1.0,2.0,52,0.00,,,0.00,Wunderground v.1.15,2013-03-28 22:01:00,
2013-03-28 18:04:00,70.1,51.1,30.13,ENE,76,3.0,7.0,51,0.00,,,0.00,Wunderground v.1.15,2013-03-28 22:04:00,
2013-03-28 18:05:00,70.1,51.1,30.13,East,100,5.0,7.0,51,0.00,,,0.00,Wunderground v.1.15,2013-03-28 22:05:00,
2013-03-28 18:06:00,70.0,52.6,30.13,East,84,0.0,7.0,54,0.00,,,0.00,Wunderground v.1.15,2013-03-28 22:06:00,
2013-03-28 18:10:00,69.9,52.0,30.13,East,90,0.0,7.0,53,0.00,,,0.00,Wunderground v.1.15,2013-03-28 22:10:00,
2013-03-28 18:11:00,69.9,51.5,30.14,East,94,2.0,4.0,52,0.00,,,0.00,Wunderground v.1.15,2013-03-28 22:11:00,
2013-03-28 18:12:00,69.8,52.9,30.14,ESE,103,5.0,5.0,55,0.00,,,0.00,Wunderground v.1.15,2013-03-28 22:12:00,
2013-03-28 18:15:00,69.6,52.2,30.13,East,88,1.0,7.0,54,0.00,,,0.00,Wunderground v.1.15,2013-03-28 22:15:00,
2013-03-28 18:16:00,69.5,52.1,30.14,East,86,0.0,7.0,54,0.00,,,0.00,Wunderground v.1.15,2013-03-28 22:16:00,
2013-03-28 18:17:00,69.5,52.1,30.14,East,86,1.0,7.0,54,0.00,,,0.00,Wunderground v.1.15,2013-03-28 22:17:00,
2013-03-28 18:20:00,69.5,53.1,30.14,ESE,119,7.0,9.0,56,0.00,,,0.00,Wunderground v.1.15,2013-03-28 22:20:00,
2013-03-28 18:21:00,69.4,53.0,30.14,East,97,5.0,9.0,56,0.00,,,0.00,Wunderground v.1.15,2013-03-28 22:21:00,
2013-03-28 18:22:00,69.4,53.0,30.14,East,96,4.0,9.0,56,0.00,,,0.00,Wunderground v.1.15,2013-03-28 22:22:00,
2013-03-28 18:27:00,69.2,52.8,30.14,East,96,4.0,10.0,56,0.00,,,0.00,Wunderground v.1.15,2013-03-28 22:27:00,
2013-03-28 18:32:00,68.9,52.1,30.14,East,91,1.0,8.0,55,0.00,,,0.00,Wunderground v.1.15,2013-03-28 22:32:00,
2013-03-28 18:37:00,68.9,53.5,30.14,East,99,0.0,8.0,58,0.00,,,0.00,Wunderground v.1.15,2013-03-28 22:37:00,
2013-03-28 18:42:00,68.8,53.9,30.14,East,93,3.0,6.0,59,0.00,,,0.00,Wunderground v.1.15,2013-03-28 22:42:00,
2013-03-28 18:43:00,68.7,52.8,30.14,East,83,1.0,6.0,57,0.00,,,0.00,Wunderground v.1.15,2013-03-28 22:43:00,
2013-03-28 18:47:00,68.5,52.7,30.14,East,88,2.0,7.0,57,0.00,,,0.00,Wunderground v.1.15,2013-03-28 22:47:00,
2013-03-28 18:48:00,68.5,52.7,30.14,ENE,67,2.0,7.0,57,0.00,,,0.00,Wunderground v.1.15,2013-03-28 22:48:00,
2013-03-28 18:53:00,68.2,52.4,30.15,East,87,0.0,7.0,57,0.00,,,0.00,Wunderground v.1.15,2013-03-28 22:53:00,
2013-03-28 18:58:00,68.0,52.7,30.15,NE,56,2.0,7.0,58,0.00,,,0.00,Wunderground v.1.15,2013-03-28 22:58:00,
2013-03-28 18:59:00,68.0,52.2,30.15,ENE,74,0.0,7.0,57,0.00,,,0.00,Wunderground v.1.15,2013-03-28 22:59:00,
2013-03-28 19:03:00,67.7,51.9,30.15,East,93,0.0,5.0,57,0.00,,,0.00,Wunderground v.1.15,2013-03-28 23:03:00,
2013-03-28 19:04:00,67.7,51.9,30.15,East,93,0.0,5.0,57,0.00,,,0.00,Wunderground v.1.15,2013-03-28 23:04:00,
2013-03-28 19:05:00,67.6,52.3,30.15,ENE,63,0.0,5.0,58,0.00,,,0.00,Wunderground v.1.15,2013-03-28 23:05:00,
2013-03-28 19:08:00,67.6,52.8,30.16,East,101,0.0,7.0,59,0.00,,,0.00,Wunderground v.1.15,2013-03-28 23:08:00,
2013-03-28 19:09:00,67.6,52.8,30.16,East,98,5.0,7.0,59,0.00,,,0.00,Wunderground v.1.15,2013-03-28 23:09:00,
2013-03-28 19:10:00,67.5,52.2,30.15,East,98,2.0,3.0,58,0.00,,,0.00,Wunderground v.1.15,2013-03-28 23:10:00,
2013-03-28 19:13:00,67.4,52.6,30.16,East,94,0.0,3.0,59,0.00,,,0.00,Wunderground v.1.15,2013-03-28 23:13:00,
2013-03-28 19:14:00,67.4,52.6,30.15,East,85,0.0,3.0,59,0.00,,,0.00,Wunderground v.1.15,2013-03-28 23:14:00,
2013-03-28 19:15:00,67.3,52.5,30.15,East,86,4.0,6.0,59,0.00,,,0.00,Wunderground v.1.15,2013-03-28 23:15:00,
2013-03-28 19:19:00,67.1,52.3,30.16,ESE,105,0.0,6.0,59,0.00,,,0.00,Wunderground v.1.15,2013-03-28 23:19:00,
2013-03-28 19:20:00,66.9,52.1,30.16,East,94,2.0,4.0,59,0.00,,,0.00,Wunderground v.1.15,2013-03-28 23:20:00,
2013-03-28 19:21:00,66.9,52.1,30.16,East,98,1.0,4.0,59,0.00,,,0.00,Wunderground v.1.15,2013-03-28 23:21:00,
2013-03-28 19:24:00,66.8,52.0,30.16,East,90,0.0,4.0,59,0.00,,,0.00,Wunderground v.1.15,2013-03-28 23:24:00,
2013-03-28 19:25:00,66.8,52.0,30.16,East,90,5.0,5.0,59,0.00,,,0.00,Wunderground v.1.15,2013-03-28 23:25:00,
2013-03-28 19:26:00,66.7,51.9,30.16,East,90,0.0,5.0,59,0.00,,,0.00,Wunderground v.1.15,2013-03-28 23:26:00,
2013-03-28 19:29:00,66.6,51.8,30.16,East,90,0.0,5.0,59,0.00,,,0.00,Wunderground v.1.15,2013-03-28 23:29:00,
2013-03-28 19:30:00,66.5,52.2,30.16,East,90,0.0,1.0,60,0.00,,,0.00,Wunderground v.1.15,2013-03-28 23:30:00,
2013-03-28 19:31:00,66.5,51.7,30.16,East,90,0.0,1.0,59,0.00,,,0.00,Wunderground v.1.15,2013-03-28 23:31:00,
2013-03-28 19:32:00,66.5,51.7,30.16,East,90,0.0,1.0,59,0.00,,,0.00,Wunderground v.1.15,2013-03-28 23:32:00,
2013-03-28 19:34:00,66.3,52.9,30.16,East,89,0.0,4.0,62,0.00,,,0.00,Wunderground v.1.15,2013-03-28 23:34:00,
2013-03-28 19:35:00,66.3,52.9,30.16,East,89,0.0,4.0,62,0.00,,,0.00,Wunderground v.1.15,2013-03-28 23:35:00,
2013-03-28 19:36:00,66.3,52.0,30.16,East,89,0.0,4.0,60,0.00,,,0.00,Wunderground v.1.15,2013-03-28 23:36:00,
2013-03-28 19:37:00,66.3,52.0,30.16,East,89,0.0,4.0,60,0.00,,,0.00,Wunderground v.1.15,2013-03-28 23:37:00,
2013-03-28 19:40:00,66.2,52.3,30.16,East,89,0.0,0.0,61,0.00,,,0.00,Wunderground v.1.15,2013-03-28 23:40:00,
2013-03-28 19:41:00,66.1,52.7,30.16,East,89,0.0,0.0,62,0.00,,,0.00,Wunderground v.1.15,2013-03-28 23:41:00,
2013-03-28 19:42:00,66.1,52.7,30.17,East,89,0.0,1.0,62,0.00,,,0.00,Wunderground v.1.15,2013-03-28 23:42:00,
2013-03-28 19:45:00,65.9,52.1,30.16,East,89,0.0,1.0,61,0.00,,,0.00,Wunderground v.1.15,2013-03-28 23:45:00,
2013-03-28 19:47:00,65.8,52.0,30.16,East,89,0.0,1.0,61,0.00,,,0.00,Wunderground v.1.15,2013-03-28 23:47:00,
2013-03-28 19:48:00,65.8,52.4,30.17,East,89,1.0,1.0,62,0.00,,,0.00,Wunderground v.1.15,2013-03-28 23:48:00,
2013-03-28 19:50:00,65.6,51.8,30.17,East,89,0.0,0.0,61,0.00,,,0.00,Wunderground v.1.15,2013-03-28 23:50:00,
2013-03-28 19:52:00,65.4,51.6,30.17,East,89,0.0,0.0,61,0.00,,,0.00,Wunderground v.1.15,2013-03-28 23:52:00,
2013-03-28 19:53:00,65.4,51.1,30.17,East,89,0.0,0.0,60,0.00,,,0.00,Wunderground v.1.15,2013-03-28 23:53:00,
2013-03-28 19:55:00,65.3,51.5,30.17,East,89,0.0,0.0,61,0.00,,,0.00,Wunderground v.1.15,2013-03-28 23:55:00,
2013-03-28 19:57:00,65.2,51.8,30.17,East,89,0.0,0.0,62,0.00,,,0.00,Wunderground v.1.15,2013-03-28 23:57:00,
2013-03-28 19:58:00,65.1,51.8,30.17,East,89,0.0,0.0,62,0.00,,,0.00,Wunderground v.1.15,2013-03-28 23:58:00,
2013-03-28 20:00:00,65.1,51.8,30.17,East,89,0.0,0.0,62,0.00,,,0.00,Wunderground v.1.15,2013-03-29 00:00:00,
2013-03-28 20:02:00,65.0,51.7,30.17,East,89,0.0,1.0,62,0.00,,,0.00,Wunderground v.1.15,2013-03-29 00:02:00,
2013-03-28 20:03:00,65.0,51.7,30.17,East,89,0.0,1.0,62,0.00,,,0.00,Wunderground v.1.15,2013-03-29 00:03:00,
2013-03-28 20:05:00,64.9,51.1,30.17,East,89,0.0,1.0,61,0.00,,,0.00,Wunderground v.1.15,2013-03-29 00:05:00,
2013-03-28 20:07:00,64.8,51.9,30.17,East,89,0.0,1.0,63,0.00,,,0.00,Wunderground v.1.15,2013-03-29 00:07:00,
2013-03-28 20:08:00,64.8,51.5,30.17,East,89,0.0,1.0,62,0.00,,,0.00,Wunderground v.1.15,2013-03-29 00:08:00,
2013-03-28 20:10:00,64.7,51.4,30.17,East,89,0.0,0.0,62,0.00,,,0.00,Wunderground v.1.15,2013-03-29 00:10:00,
2013-03-28 20:13:00,64.6,51.3,30.17,East,89,0.0,0.0,62,0.00,,,0.00,Wunderground v.1.15,2013-03-29 00:13:00,
2013-03-28 20:14:00,64.5,51.2,30.17,East,89,0.0,0.0,62,0.00,,,0.00,Wunderground v.1.15,2013-03-29 00:14:00,
2013-03-28 20:15:00,64.4,51.1,30.18,East,89,0.0,0.0,62,0.00,,,0.00,Wunderground v.1.15,2013-03-29 00:15:00,
2013-03-28 20:18:00,64.2,51.8,30.18,East,89,0.0,0.0,64,0.00,,,0.00,Wunderground v.1.15,2013-03-29 00:18:00,
2013-03-28 20:19:00,64.2,50.9,30.18,East,89,0.0,0.0,62,0.00,,,0.00,Wunderground v.1.15,2013-03-29 00:19:00,
2013-03-28 20:21:00,64.1,50.8,30.18,East,89,0.0,0.0,62,0.00,,,0.00,Wunderground v.1.15,2013-03-29 00:21:00,
2013-03-28 20:23:00,63.8,50.1,30.18,East,89,0.0,0.0,61,0.00,,,0.00,Wunderground v.1.15,2013-03-29 00:23:00,
2013-03-28 20:24:00,63.7,50.0,30.18,East,89,0.0,0.0,61,0.00,,,0.00,Wunderground v.1.15,2013-03-29 00:24:00,
2013-03-28 20:25:00,63.7,50.0,30.18,East,89,0.0,0.0,61,0.00,,,0.00,Wunderground v.1.15,2013-03-29 00:25:00,
2013-03-28 20:26:00,63.5,49.8,30.18,East,89,0.0,0.0,61,0.00,,,0.00,Wunderground v.1.15,2013-03-29 00:26:00,
2013-03-28 20:28:00,63.2,49.5,30.18,East,89,0.0,0.0,61,0.00,,,0.00,Wunderground v.1.15,2013-03-29 00:28:00,
2013-03-28 20:29:00,63.2,49.1,30.18,East,89,0.0,0.0,60,0.00,,,0.00,Wunderground v.1.15,2013-03-29 00:29:00,
2013-03-28 20:30:00,63.1,49.0,30.18,East,89,0.0,0.0,60,0.00,,,0.00,Wunderground v.1.15,2013-03-29 00:30:00,
2013-03-28 20:31:00,62.9,48.8,30.18,East,88,0.0,0.0,60,0.00,,,0.00,Wunderground v.1.15,2013-03-29 00:31:00,
2013-03-28 20:33:00,62.7,48.2,30.18,East,88,0.0,0.0,59,0.00,,,0.00,Wunderground v.1.15,2013-03-29 00:33:00,
2013-03-28 20:34:00,62.7,48.2,30.18,East,88,0.0,1.0,59,0.00,,,0.00,Wunderground v.1.15,2013-03-29 00:34:00,
2013-03-28 20:35:00,62.7,48.2,30.18,East,88,0.0,1.0,59,0.00,,,0.00,Wunderground v.1.15,2013-03-29 00:35:00,
2013-03-28 20:37:00,62.7,47.7,30.18,East,88,0.0,1.0,58,0.00,,,0.00,Wunderground v.1.15,2013-03-29 00:37:00,
2013-03-28 20:39:00,62.7,47.2,30.18,East,88,0.0,1.0,57,0.00,,,0.00,Wunderground v.1.15,2013-03-29 00:39:00,
2013-03-28 20:40:00,62.8,47.3,30.18,East,88,0.0,0.0,57,0.00,,,0.00,Wunderground v.1.15,2013-03-29 00:40:00,
2013-03-28 20:42:00,62.9,47.4,30.18,East,88,0.0,0.0,57,0.00,,,0.00,Wunderground v.1.15,2013-03-29 00:42:00,
2013-03-28 20:44:00,62.8,46.9,30.18,East,88,0.0,1.0,56,0.00,,,0.00,Wunderground v.1.15,2013-03-29 00:44:00,
2013-03-28 20:45:00,62.8,46.9,30.18,East,88,0.0,1.0,56,0.00,,,0.00,Wunderground v.1.15,2013-03-29 00:45:00,
2013-03-28 20:46:00,62.8,46.9,30.18,East,88,0.0,1.0,56,0.00,,,0.00,Wunderground v.1.15,2013-03-29 00:46:00,
2013-03-28 20:47:00,62.7,46.8,30.18,East,88,0.0,1.0,56,0.00,,,0.00,Wunderground v.1.15,2013-03-29 00:47:00,
2013-03-28 20:49:00,62.6,47.1,30.18,East,88,0.0,1.0,57,0.00,,,0.00,Wunderground v.1.15,2013-03-29 00:49:00,
2013-03-28 20:50:00,62.5,47.1,30.18,East,88,0.0,0.0,57,0.00,,,0.00,Wunderground v.1.15,2013-03-29 00:50:00,
2013-03-28 20:51:00,62.5,47.1,30.18,East,88,0.0,0.0,57,0.00,,,0.00,Wunderground v.1.15,2013-03-29 00:51:00,
2013-03-28 20:52:00,62.4,47.0,30.19,East,88,0.0,0.0,57,0.00,,,0.00,Wunderground v.1.15,2013-03-29 00:52:00,
2013-03-28 20:54:00,62.2,46.8,30.19,East,88,0.0,0.0,57,0.00,,,0.00,Wunderground v.1.15,2013-03-29 00:54:00,
2013-03-28 20:56:00,62.1,46.7,30.18,East,88,0.0,0.0,57,0.00,,,0.00,Wunderground v.1.15,2013-03-29 00:56:00,
2013-03-28 20:57:00,62.0,47.0,30.18,East,88,0.0,0.0,58,0.00,,,0.00,Wunderground v.1.15,2013-03-29 00:57:00,
2013-03-28 20:59:00,61.7,46.8,30.19,East,88,0.0,0.0,58,0.00,,,0.00,Wunderground v.1.15,2013-03-29 00:59:00,
2013-03-28 21:01:00,61.5,46.6,30.19,East,88,0.0,0.0,58,0.00,,,0.00,Wunderground v.1.15,2013-03-29 01:01:00,
2013-03-28 21:02:00,61.5,47.0,30.19,East,88,0.0,0.0,59,0.00,,,0.00,Wunderground v.1.15,2013-03-29 01:02:00,
2013-03-28 21:05:00,61.1,46.7,30.19,East,88,0.0,0.0,59,0.00,,,0.00,Wunderground v.1.15,2013-03-29 01:05:00,
2013-03-28 21:06:00,61.0,46.6,30.19,East,88,0.0,0.0,59,0.00,,,0.00,Wunderground v.1.15,2013-03-29 01:06:00,
2013-03-28 21:07:00,61.0,46.6,30.19,East,88,0.0,0.0,59,0.00,,,0.00,Wunderground v.1.15,2013-03-29 01:07:00,
2013-03-28 21:10:00,60.8,46.8,30.20,East,88,0.0,0.0,60,0.00,,,0.00,Wunderground v.1.15,2013-03-29 01:10:00,
2013-03-28 21:12:00,60.6,46.6,30.19,East,88,0.0,0.0,60,0.00,,,0.00,Wunderground v.1.15,2013-03-29 01:12:00,
2013-03-28 21:13:00,60.5,46.5,30.19,East,88,0.0,0.0,60,0.00,,,0.00,Wunderground v.1.15,2013-03-29 01:13:00,
2013-03-28 21:15:00,60.3,46.8,30.19,East,88,0.0,0.0,61,0.00,,,0.00,Wunderground v.1.15,2013-03-29 01:15:00,
2013-03-28 21:17:00,60.1,47.0,30.20,East,88,0.0,0.0,62,0.00,,,0.00,Wunderground v.1.15,2013-03-29 01:17:00,
2013-03-28 21:18:00,60.0,46.9,30.20,East,88,0.0,0.0,62,0.00,,,0.00,Wunderground v.1.15,2013-03-29 01:18:00,
2013-03-28 21:20:00,59.8,47.2,30.20,East,88,0.0,0.0,63,0.00,,,0.00,Wunderground v.1.15,2013-03-29 01:20:00,
2013-03-28 21:23:00,59.5,46.9,30.20,East,88,0.0,0.0,63,0.00,,,0.00,Wunderground v.1.15,2013-03-29 01:23:00,
2013-03-28 21:24:00,59.4,46.8,30.20,East,88,0.0,0.0,63,0.00,,,0.00,Wunderground v.1.15,2013-03-29 01:24:00,
2013-03-28 21:25:00,59.3,46.7,30.20,East,88,0.0,0.0,63,0.00,,,0.00,Wunderground v.1.15,2013-03-29 01:25:00,
2013-03-28 21:28:00,59.2,46.6,30.20,East,88,0.0,0.0,63,0.00,,,0.00,Wunderground v.1.15,2013-03-29 01:28:00,
2013-03-28 21:29:00,59.1,46.5,30.20,East,88,0.0,0.0,63,0.00,,,0.00,Wunderground v.1.15,2013-03-29 01:29:00,
2013-03-28 21:30:00,59.1,46.5,30.20,East,88,0.0,0.0,63,0.00,,,0.00,Wunderground v.1.15,2013-03-29 01:30:00,
2013-03-28 21:33:00,59.0,46.4,30.20,East,88,0.0,0.0,63,0.00,,,0.00,Wunderground v.1.15,2013-03-29 01:33:00,
2013-03-28 21:35:00,58.9,45.9,30.20,East,88,0.0,0.0,62,0.00,,,0.00,Wunderground v.1.15,2013-03-29 01:35:00,
2013-03-28 21:36:00,58.9,45.9,30.20,East,88,0.0,0.0,62,0.00,,,0.00,Wunderground v.1.15,2013-03-29 01:36:00,
2013-03-28 21:38:00,58.9,45.9,30.21,East,88,0.0,0.0,62,0.00,,,0.00,Wunderground v.1.15,2013-03-29 01:38:00,
2013-03-28 21:39:00,58.9,45.5,30.21,East,88,0.0,0.0,61,0.00,,,0.00,Wunderground v.1.15,2013-03-29 01:39:00,
2013-03-28 21:40:00,59.0,45.6,30.20,East,88,0.0,0.0,61,0.00,,,0.00,Wunderground v.1.15,2013-03-29 01:40:00,
2013-03-28 21:42:00,59.0,45.6,30.21,East,88,0.0,0.0,61,0.00,,,0.00,Wunderground v.1.15,2013-03-29 01:42:00,
2013-03-28 21:43:00,59.0,45.6,30.21,East,88,0.0,0.0,61,0.00,,,0.00,Wunderground v.1.15,2013-03-29 01:43:00,
2013-03-28 21:44:00,59.0,46.0,30.20,East,88,0.0,0.0,62,0.00,,,0.00,Wunderground v.1.15,2013-03-29 01:44:00,
2013-03-28 21:45:00,59.0,46.0,30.20,East,88,0.0,0.0,62,0.00,,,0.00,Wunderground v.1.15,2013-03-29 01:45:00,
2013-03-28 21:47:00,58.8,46.2,30.21,East,88,0.0,0.0,63,0.00,,,0.00,Wunderground v.1.15,2013-03-29 01:47:00,
2013-03-28 21:48:00,58.6,46.0,30.21,East,88,0.0,0.0,63,0.00,,,0.00,Wunderground v.1.15,2013-03-29 01:48:00,
2013-03-28 21:49:00,58.6,46.0,30.21,East,88,0.0,0.0,63,0.00,,,0.00,Wunderground v.1.15,2013-03-29 01:49:00,
2013-03-28 21:50:00,58.5,45.9,30.21,East,88,1.0,1.0,63,0.00,,,0.00,Wunderground v.1.15,2013-03-29 01:50:00,
2013-03-28 21:52:00,58.3,45.8,30.21,East,88,0.0,1.0,63,0.00,,,0.00,Wunderground v.1.15,2013-03-29 01:52:00,
2013-03-28 21:54:00,58.2,45.7,30.21,East,88,0.0,1.0,63,0.00,,,0.00,Wunderground v.1.15,2013-03-29 01:54:00,
2013-03-28 21:55:00,58.2,45.7,30.21,East,88,0.0,1.0,63,0.00,,,0.00,Wunderground v.1.15,2013-03-29 01:55:00,
2013-03-28 21:57:00,58.2,45.2,30.21,East,88,0.0,1.0,62,0.00,,,0.00,Wunderground v.1.15,2013-03-29 01:57:00,
2013-03-28 21:59:00,58.2,45.2,30.21,East,88,0.0,1.0,62,0.00,,,0.00,Wunderground v.1.15,2013-03-29 01:59:00,
2013-03-28 22:00:00,58.2,45.2,30.21,East,88,0.0,0.0,62,0.00,,,0.00,Wunderground v.1.15,2013-03-29 02:00:00,
2013-03-28 22:01:00,58.2,45.2,30.21,East,88,0.0,0.0,62,0.00,,,0.00,Wunderground v.1.15,2013-03-29 02:01:00,
2013-03-28 22:02:00,58.2,45.2,30.21,East,88,0.0,0.0,62,0.00,,,0.00,Wunderground v.1.15,2013-03-29 02:02:00,
2013-03-28 22:05:00,58.3,44.9,30.21,East,88,0.0,1.0,61,0.00,,,0.00,Wunderground v.1.15,2013-03-29 02:05:00,
2013-03-28 22:07:00,58.3,44.5,30.21,East,88,0.0,1.0,60,0.00,,,0.00,Wunderground v.1.15,2013-03-29 02:07:00,
2013-03-28 22:10:00,58.2,44.4,30.21,East,88,0.0,0.0,60,0.00,,,0.00,Wunderground v.1.15,2013-03-29 02:10:00,
2013-03-28 22:12:00,58.2,43.9,30.21,East,88,0.0,0.0,59,0.00,,,0.00,Wunderground v.1.15,2013-03-29 02:12:00,
2013-03-28 22:15:00,58.1,43.8,30.21,East,88,0.0,0.0,59,0.00,,,0.00,Wunderground v.1.15,2013-03-29 02:15:00,
2013-03-28 22:17:00,58.1,43.8,30.21,East,88,0.0,0.0,59,0.00,,,0.00,Wunderground v.1.15,2013-03-29 02:17:00,
2013-03-28 22:20:00,58.0,43.7,30.22,East,88,0.0,0.0,59,0.00,,,0.00,Wunderground v.1.15,2013-03-29 02:20:00,
2013-03-28 22:22:00,58.0,43.3,30.22,East,88,0.0,0.0,58,0.00,,,0.00,Wunderground v.1.15,2013-03-29 02:22:00,
2013-03-28 22:23:00,58.0,43.3,30.22,East,88,0.0,0.0,58,0.00,,,0.00,Wunderground v.1.15,2013-03-29 02:23:00,
2013-03-28 22:26:00,57.9,43.2,30.22,East,88,0.0,0.0,58,0.00,,,0.00,Wunderground v.1.15,2013-03-29 02:26:00,
2013-03-28 22:27:00,57.8,43.1,30.22,East,88,0.0,0.0,58,0.00,,,0.00,Wunderground v.1.15,2013-03-29 02:27:00,
2013-03-28 22:28:00,57.8,43.1,30.22,East,88,0.0,0.0,58,0.00,,,0.00,Wunderground v.1.15,2013-03-29 02:28:00,
2013-03-28 22:31:00,57.8,43.1,30.22,East,88,0.0,0.0,58,0.00,,,0.00,Wunderground v.1.15,2013-03-29 02:31:00,
2013-03-28 22:33:00,57.8,43.1,30.22,East,88,0.0,0.0,58,0.00,,,0.00,Wunderground v.1.15,2013-03-29 02:33:00,
2013-03-28 22:37:00,57.8,43.1,30.22,East,88,0.0,0.0,58,0.00,,,0.00,Wunderground v.1.15,2013-03-29 02:37:00,
2013-03-28 22:38:00,57.8,42.7,30.22,East,88,0.0,0.0,57,0.00,,,0.00,Wunderground v.1.15,2013-03-29 02:38:00,
2013-03-28 22:42:00,57.6,42.9,30.22,East,88,0.0,0.0,58,0.00,,,0.00,Wunderground v.1.15,2013-03-29 02:42:00,
2013-03-28 22:43:00,57.6,42.9,30.22,East,88,0.0,0.0,58,0.00,,,0.00,Wunderground v.1.15,2013-03-29 02:43:00,
2013-03-28 22:44:00,57.6,42.9,30.22,East,88,0.0,0.0,58,0.00,,,0.00,Wunderground v.1.15,2013-03-29 02:44:00,
2013-03-28 22:48:00,57.5,42.8,30.22,East,88,0.0,0.0,58,0.00,,,0.00,Wunderground v.1.15,2013-03-29 02:48:00,
2013-03-28 22:49:00,57.5,43.3,30.22,East,88,0.0,0.0,59,0.00,,,0.00,Wunderground v.1.15,2013-03-29 02:49:00,
2013-03-28 22:54:00,57.3,43.1,30.22,East,88,0.0,0.0,59,0.00,,,0.00,Wunderground v.1.15,2013-03-29 02:54:00,
2013-03-28 22:55:00,57.2,43.0,30.22,East,88,0.0,0.0,59,0.00,,,0.00,Wunderground v.1.15,2013-03-29 02:55:00,
2013-03-28 22:59:00,57.2,43.0,30.22,East,88,0.0,0.0,59,0.00,,,0.00,Wunderground v.1.15,2013-03-29 02:59:00,
2013-03-28 23:00:00,57.2,43.0,30.22,East,88,0.0,0.0,59,0.00,,,0.00,Wunderground v.1.15,2013-03-29 03:00:00,
2013-03-28 23:04:00,57.3,43.1,30.22,East,88,0.0,0.0,59,0.00,,,0.00,Wunderground v.1.15,2013-03-29 03:04:00,
2013-03-28 23:05:00,57.2,43.0,30.22,East,88,0.0,0.0,59,0.00,,,0.00,Wunderground v.1.15,2013-03-29 03:05:00,
2013-03-28 23:06:00,57.2,43.0,30.22,East,88,0.0,0.0,59,0.00,,,0.00,Wunderground v.1.15,2013-03-29 03:06:00,
2013-03-28 23:09:00,57.2,43.4,30.22,East,88,0.0,0.0,60,0.00,,,0.00,Wunderground v.1.15,2013-03-29 03:09:00,
2013-03-28 23:10:00,57.2,43.4,30.22,East,88,0.0,0.0,60,0.00,,,0.00,Wunderground v.1.15,2013-03-29 03:10:00,
2013-03-28 23:11:00,57.2,43.4,30.22,East,88,0.0,0.0,60,0.00,,,0.00,Wunderground v.1.15,2013-03-29 03:11:00,
2013-03-28 23:12:00,57.2,43.4,30.22,East,88,0.0,0.0,60,0.00,,,0.00,Wunderground v.1.15,2013-03-29 03:12:00,
2013-03-28 23:14:00,57.1,43.3,30.22,East,88,0.0,0.0,60,0.00,,,0.00,Wunderground v.1.15,2013-03-29 03:14:00,
2013-03-28 23:15:00,57.2,43.4,30.22,East,88,0.0,0.0,60,0.00,,,0.00,Wunderground v.1.15,2013-03-29 03:15:00,
2013-03-28 23:17:00,57.2,43.4,30.22,East,88,0.0,0.0,60,0.00,,,0.00,Wunderground v.1.15,2013-03-29 03:17:00,
2013-03-28 23:20:00,57.2,43.4,30.22,East,88,0.0,0.0,60,0.00,,,0.00,Wunderground v.1.15,2013-03-29 03:20:00,
2013-03-28 23:21:00,57.2,43.9,30.22,East,88,0.0,0.0,61,0.00,,,0.00,Wunderground v.1.15,2013-03-29 03:21:00,
2013-03-28 23:22:00,57.3,43.5,30.22,East,88,0.0,0.0,60,0.00,,,0.00,Wunderground v.1.15,2013-03-29 03:22:00,
2013-03-28 23:25:00,57.2,43.9,30.22,East,88,0.0,0.0,61,0.00,,,0.00,Wunderground v.1.15,2013-03-29 03:25:00,
2013-03-28 23:26:00,57.1,43.8,30.22,East,88,0.0,0.0,61,0.00,,,0.00,Wunderground v.1.15,2013-03-29 03:26:00,
2013-03-28 23:27:00,57.1,44.2,30.22,East,88,0.0,0.0,62,0.00,,,0.00,Wunderground v.1.15,2013-03-29 03:27:00,
2013-03-28 23:28:00,57.1,44.2,30.22,East,88,0.0,0.0,62,0.00,,,0.00,Wunderground v.1.15,2013-03-29 03:28:00,
2013-03-28 23:30:00,57.1,43.8,30.22,East,88,0.0,0.0,61,0.00,,,0.00,Wunderground v.1.15,2013-03-29 03:30:00,
2013-03-28 23:31:00,57.1,43.8,30.22,East,88,0.0,0.0,61,0.00,,,0.00,Wunderground v.1.15,2013-03-29 03:31:00,
2013-03-28 23:33:00,56.9,43.6,30.22,East,88,0.0,0.0,61,0.00,,,0.00,Wunderground v.1.15,2013-03-29 03:33:00,
2013-03-28 23:35:00,56.8,43.5,30.22,East,88,0.0,0.0,61,0.00,,,0.00,Wunderground v.1.15,2013-03-29 03:35:00,
2013-03-28 23:37:00,56.8,43.9,30.22,East,88,0.0,0.0,62,0.00,,,0.00,Wunderground v.1.15,2013-03-29 03:37:00,
2013-03-28 23:38:00,56.7,43.8,30.22,East,88,0.0,0.0,62,0.00,,,0.00,Wunderground v.1.15,2013-03-29 03:38:00,
2013-03-28 23:40:00,56.7,43.8,30.22,East,88,0.0,0.0,62,0.00,,,0.00,Wunderground v.1.15,2013-03-29 03:40:00,
2013-03-28 23:43:00,56.6,43.7,30.22,East,88,0.0,0.0,62,0.00,,,0.00,Wunderground v.1.15,2013-03-29 03:43:00,
2013-03-28 23:44:00,56.6,43.7,30.22,East,88,0.0,0.0,62,0.00,,,0.00,Wunderground v.1.15,2013-03-29 03:44:00,
2013-03-28 23:45:00,56.6,43.7,30.22,East,88,0.0,0.0,62,0.00,,,0.00,Wunderground v.1.15,2013-03-29 03:45:00,
2013-03-28 23:48:00,56.7,43.8,30.22,East,88,0.0,0.0,62,0.00,,,0.00,Wunderground v.1.15,2013-03-29 03:48:00,
2013-03-28 23:49:00,56.7,43.8,30.22,East,88,0.0,0.0,62,0.00,,,0.00,Wunderground v.1.15,2013-03-29 03:49:00,
2013-03-28 23:51:00,56.7,43.8,30.22,East,88,0.0,0.0,62,0.00,,,0.00,Wunderground v.1.15,2013-03-29 03:51:00,
2013-03-28 23:53:00,56.6,43.7,30.22,East,88,0.0,0.0,62,0.00,,,0.00,Wunderground v.1.15,2013-03-29 03:53:00,
2013-03-28 23:54:00,56.6,43.7,30.22,East,88,0.0,0.0,62,0.00,,,0.00,Wunderground v.1.15,2013-03-29 03:54:00,
2013-03-28 23:56:00,56.7,43.8,30.22,East,88,0.0,0.0,62,0.00,,,0.00,Wunderground v.1.15,2013-03-29 03:56:00,
2013-03-28 23:58:00,56.8,43.9,30.22,East,88,0.0,0.0,62,0.00,,,0.00,Wunderground v.1.15,2013-03-29 03:58:00,
2013-03-28 23:59:00,56.8,43.9,30.22,East,88,0.0,0.0,62,0.00,,,0.00,Wunderground v.1.15,2013-03-29 03:59:00,